GW2826 Weather Reports


time (UTC)temp
F
wind
direction
speed
knots
gust
knots
rain 1hr
in
rain 24hr
in
rain mn
in
humidity
%
barometer
mb
20260510214403 48 297 3.5 8.7 0.00 0.00 0.00 84 1003.3
20260510214303 48 299 3.5 8.7 0.00 0.00 0.00 84 1003.1
20260510214203 48 294 4.3 8.7 0.00 0.00 0.00 84 1003.2
20260510214103 48 291 3.5 8.7 0.00 0.00 0.00 84 1003.2
20260510214003 48 291 3.5 9.6 0.00 0.00 0.00 84 1003.2
20260510213903 48 291 4.3 9.6 0.00 0.00 0.00 84 1003.2
20260510213803 48 292 4.3 9.6 0.00 0.00 0.00 84 1002.9
20260510213703 48 291 4.3 9.6 0.00 0.00 0.00 84 1003.2
20260510213603 48 291 4.3 9.6 0.00 0.00 0.00 84 1003.4
20260510213503 48 290 4.3 9.6 0.00 0.00 0.00 84 1003.3
20260510213403 48 291 4.3 9.6 0.00 0.00 0.00 83 1003.2
20260510213303 48 289 4.3 9.6 0.00 0.00 0.00 83 1003.3
20260510213224 48 288 4.3 9.6 0.00 0.00 0.00 83 1003.3
20260510213103 48 292 4.3 9.6 0.00 0.00 0.00 83 1003.5
20260510213003 48 289 4.3 9.6 0.00 0.00 0.00 83 1003.5
20260510212903 48 289 4.3 8.7 0.00 0.00 0.00 83 1003.4
20260510212803 48 289 3.5 8.7 0.00 0.00 0.00 83 1003.4
20260510212703 48 287 3.5 7.0 0.00 0.00 0.00 83 1003.2
20260510212603 48 289 3.5 7.0 0.00 0.00 0.00 83 1003.5
20260510212503 48 289 3.5 7.8 0.00 0.00 0.00 83 1003.4
20260510212403 48 290 3.5 7.8 0.00 0.00 0.00 82 1003.5
20260510212306 48 288 3.5 7.8 0.00 0.00 0.00 82 1003.5
20260510212203 48 288 3.5 7.8 0.00 0.00 0.00 82 1003.3
20260510212103 48 289 3.5 7.8 0.00 0.00 0.00 82 1003.6
20260510212003 48 289 3.5 7.8 0.00 0.00 0.00 82 1003.6
20260510211903 48 290 4.3 7.8 0.00 0.00 0.00 82 1003.6
20260510211803 48 289 3.5 7.8 0.00 0.00 0.00 82 1003.7
20260510211705 48 290 3.5 7.8 0.00 0.00 0.00 82 1003.6
20260510211604 48 290 3.5 7.8 0.00 0.00 0.00 82 1003.5
20260510211505 48 293 3.5 7.8 0.00 0.00 0.00 82 1003.5
20260510211404 48 292 4.3 7.8 0.00 0.00 0.00 82 1003.7
20260510211305 48 295 3.5 7.8 0.00 0.00 0.00 82 1003.5
20260510211225 48 296 3.5 7.8 0.00 0.00 0.00 82 1003.5
20260510211104 48 296 3.5 7.0 0.00 0.00 0.00 82 1003.5
20260510211005 48 295 3.5 7.0 0.00 0.00 0.00 82 1003.3
20260510210904 48 296 3.5 7.0 0.00 0.00 0.00 82 1003.6
20260510210804 48 296 3.5 7.8 0.00 0.00 0.00 82 1003.5
20260510210704 48 297 3.5 7.8 0.00 0.00 0.00 82 1003.6
20260510210605 48 296 3.5 7.8 0.00 0.00 0.00 82 1003.7
20260510210504 48 289 3.5 7.8 0.00 0.00 0.00 82 1003.6
20260510210404 48 287 3.5 7.8 0.00 0.00 0.00 82 1003.3
20260510210325 48 286 3.5 7.8 0.00 0.00 0.00 82 1003.3
20260510210205 48 285 3.5 7.8 0.00 0.00 0.00 82 1003.6
20260510210125 48 285 3.5 7.8 0.00 0.00 0.00 82 1003.6
20260510210005 48 285 3.5 7.8 0.00 0.00 0.00 82 1003.4
20260510205904 48 281 3.5 7.8 0.00 0.00 0.00 82 1003.6
20260510205804 48 279 2.6 7.8 0.00 0.00 0.00 82 1003.8
20260510205705 48 276 2.6 7.8 0.00 0.00 0.00 82 1003.6
20260510205604 48 273 2.6 7.0 0.00 0.00 0.00 82 1003.8
20260510205504 48 283 2.6 7.0 0.00 0.00 0.00 82 1003.4
20260510205404 48 284 2.6 7.0 0.00 0.00 0.00 82 1003.5
20260510205306 48 284 1.7 7.0 0.00 0.00 0.00 82 1003.7
20260510205204 48 291 1.7 7.0 0.00 0.00 0.00 82 1003.7
20260510205104 48 293 1.7 7.0 0.00 0.00 0.00 81 1003.7
20260510205004 48 292 1.7 5.2 0.00 0.00 0.00 81 1003.7
20260510204904 48 306 1.7 5.2 0.00 0.00 0.00 81 1003.7
20260510204805 48 305 1.7 5.2 0.00 0.00 0.00 81 1003.7
20260510204704 48 298 1.7 5.2 0.00 0.00 0.00 81 1003.9
20260510204626 48 295 1.7 5.2 0.00 0.00 0.00 81 1003.9
20260510204504 48 291 1.7 5.2 0.00 0.00 0.00 81 1003.9
20260510204425 48 296 1.7 5.2 0.00 0.00 0.00 81 1003.9
20260510204304 48 312 1.7 5.2 0.00 0.00 0.00 81 1003.9
20260510204204 48 314 1.7 5.2 0.00 0.00 0.00 80 1003.8
20260510204126 48 330 1.7 5.2 0.00 0.00 0.00 80 1003.8
20260510204004 48 351 1.7 6.1 0.00 0.00 0.00 80 1003.8
20260510203905 48 360 0.9 6.1 0.00 0.00 0.00 79 1003.9
20260510203805 48 1 1.7 6.1 0.00 0.00 0.00 79 1003.7
20260510203704 48 14 0.9 6.1 0.00 0.00 0.00 79 1003.8
20260510203605 48 23 1.7 6.1 0.00 0.00 0.00 79 1004.0
20260510203504 48 26 1.7 6.1 0.00 0.00 0.00 78 1003.9
20260510203404 48 19 1.7 6.1 0.00 0.00 0.00 78 1003.9
20260510203304 48 18 1.7 6.1 0.00 0.00 0.00 78 1003.9
20260510203205 48 6 1.7 6.1 0.00 0.00 0.00 78 1003.9
20260510203105 49 10 1.7 6.1 0.00 0.00 0.00 78 1003.9
20260510203004 49 14 1.7 6.1 0.00 0.00 0.00 78 1003.8
20260510202904 49 12 1.7 6.1 0.00 0.00 0.00 78 1004.0
20260510202804 49 13 1.7 6.1 0.00 0.00 0.00 78 1004.0
20260510202705 49 17 1.7 6.1 0.00 0.00 0.00 78 1003.9
20260510202604 49 10 1.7 6.1 0.00 0.00 0.00 78 1003.9
20260510202505 49 6 2.6 6.1 0.00 0.00 0.00 78 1004.0
20260510202404 49 17 1.7 6.1 0.00 0.00 0.00 78 1003.8
20260510202325 49 14 1.7 6.1 0.00 0.00 0.00 77 1003.8
20260510202205 49 13 1.7 6.1 0.00 0.00 0.00 77 1004.0
20260510202104 49 351 1.7 6.1 0.00 0.00 0.00 77 1003.8
20260510202004 49 319 1.7 6.1 0.00 0.00 0.00 77 1003.8
20260510201905 49 315 1.7 5.2 0.00 0.00 0.00 77 1003.9
20260510201804 49 313 1.7 5.2 0.00 0.00 0.00 77 1003.9
20260510201705 49 314 1.7 5.2 0.00 0.00 0.00 77 1003.9
20260510201604 49 312 1.7 7.8 0.00 0.00 0.00 77 1003.9
20260510201504 49 306 1.7 7.8 0.00 0.00 0.00 77 1004.1
20260510201404 49 306 2.6 7.8 0.00 0.00 0.00 77 1004.0
20260510201325 49 305 2.6 7.8 0.00 0.00 0.00 76 1004.0
20260510201205 49 296 2.6 7.8 0.00 0.00 0.00 76 1004.1
20260510201104 49 295 2.6 7.8 0.00 0.00 0.00 76 1004.0
20260510201004 49 296 2.6 7.8 0.00 0.00 0.00 76 1004.1
20260510200904 49 292 2.6 7.8 0.00 0.00 0.00 76 1004.0
20260510200804 49 290 2.6 7.8 0.00 0.00 0.00 76 1003.9
20260510200726 49 287 2.6 7.8 0.00 0.00 0.00 76 1003.9
20260510200604 49 287 2.6 7.8 0.00 0.00 0.00 76 1004.0
20260510200504 49 287 2.6 7.8 0.00 0.00 0.00 76 1004.0
20260510200404 49 286 2.6 7.0 0.00 0.00 0.00 76 1003.8
20260510200305 49 287 2.6 7.0 0.00 0.00 0.00 76 1004.1
20260510200204 49 293 2.6 7.0 0.00 0.00 0.00 76 1003.9
20260510200105 49 294 2.6 7.0 0.00 0.00 0.00 77 1004.1
20260510200026 49 299 1.7 7.0 0.00 0.00 0.00 77 1004.1
20260510195905 49 307 1.7 7.0 0.00 0.00 0.00 77 1004.0
20260510195826 49 314 1.7 7.0 0.00 0.00 0.00 77 1004.0
20260510195725 49 320 1.7 7.0 0.00 0.00 0.00 77 1004.0
20260510195604 49 317 1.7 7.0 0.00 0.00 0.00 77 1003.9
20260510195504 49 332 1.7 7.0 0.00 0.00 0.00 77 1004.0
20260510195404 49 333 1.7 7.0 0.00 0.00 0.00 78 1004.1
20260510195306 49 339 1.7 5.2 0.00 0.00 0.00 78 1004.0
20260510195225 49 342 1.7 5.2 0.00 0.00 0.00 78 1004.0
20260510195104 49 5 1.7 7.0 0.00 0.00 0.00 78 1003.9
20260510195004 50 10 1.7 7.0 0.00 0.00 0.00 77 1004.0
20260510194904 50 12 1.7 7.0 0.00 0.00 0.00 77 1004.1
20260510194804 50 6 1.7 7.0 0.00 0.00 0.00 77 1004.1
20260510194704 50 15 1.7 7.0 0.00 0.00 0.00 76 1004.1
20260510194604 50 12 2.6 7.0 0.00 0.00 0.00 76 1004.1
20260510194505 50 10 2.6 7.0 0.00 0.00 0.00 76 1004.0
20260510194404 50 9 2.6 7.0 0.00 0.00 0.00 76 1003.8
20260510194304 50 13 2.6 7.0 0.00 0.00 0.00 76 1004.0
20260510194204 50 12 2.6 7.0 0.00 0.00 0.00 76 1004.1
20260510194126 50 11 1.7 7.0 0.00 0.00 0.00 76 1004.1
20260510194004 50 3 1.7 6.1 0.00 0.00 0.00 75 1004.0
20260510193904 50 358 1.7 6.1 0.00 0.00 0.00 75 1004.1
20260510193804 50 343 1.7 6.1 0.00 0.00 0.00 74 1004.1
20260510193704 50 338 1.7 6.1 0.00 0.00 0.00 74 1004.3
20260510193604 50 348 1.7 6.1 0.00 0.00 0.00 74 1003.9
20260510193504 50 349 1.7 6.1 0.00 0.00 0.00 75 1004.0
20260510193404 50 345 1.7 6.1 0.00 0.00 0.00 75 1004.0
20260510193304 50 340 1.7 6.1 0.00 0.00 0.00 75 1004.1
20260510193204 50 337 1.7 6.1 0.00 0.00 0.00 75 1004.1
20260510193104 50 342 1.7 6.1 0.00 0.00 0.00 75 1004.0
20260510193004 50 350 1.7 6.1 0.00 0.00 0.00 75 1004.0
20260510192905 50 360 1.7 6.1 0.00 0.00 0.00 74 1004.1
20260510192825 50 9 1.7 6.1 0.00 0.00 0.00 74 1004.1
20260510192705 50 10 1.7 6.1 0.00 0.00 0.00 74 1003.9
20260510192604 50 8 1.7 6.1 0.00 0.00 0.00 74 1004.0
20260510192505 51 7 1.7 6.1 0.00 0.00 0.00 74 1004.0
20260510192404 51 24 1.7 6.1 0.00 0.00 0.00 74 1004.1
20260510192306 51 19 1.7 6.1 0.00 0.00 0.00 74 1003.9
20260510192204 51 15 1.7 6.1 0.00 0.00 0.00 75 1003.8
20260510192104 51 15 1.7 6.1 0.00 0.00 0.00 75 1003.8
20260510192004 51 9 1.7 5.2 0.00 0.00 0.00 75 1004.0
20260510191904 51 1 1.7 5.2 0.00 0.00 0.00 75 1004.0
20260510191804 51 359 1.7 5.2 0.00 0.00 0.00 75 1004.0
20260510191705 51 4 1.7 7.0 0.00 0.00 0.00 75 1004.0
20260510191605 51 7 1.7 7.0 0.00 0.00 0.00 75 1004.0
20260510191505 51 4 1.7 7.0 0.00 0.00 0.00 75 1004.2
20260510191404 51 3 1.7 7.0 0.00 0.00 0.00 74 1004.2
20260510191325 51 2 1.7 7.8 0.00 0.00 0.00 74 1004.2
20260510191225 51 7 1.7 7.8 0.00 0.00 0.00 74 1004.0
20260510191104 51 10 1.7 7.8 0.00 0.00 0.00 74 1004.1
20260510191004 51 14 1.7 7.8 0.00 0.00 0.00 73 1003.8
20260510190904 51 16 1.7 7.8 0.00 0.00 0.00 73 1004.0
20260510190825 51 21 1.7 7.8 0.00 0.00 0.00 73 1004.0
20260510190705 51 16 1.7 7.8 0.00 0.00 0.00 73 1004.1
20260510190604 51 16 1.7 7.8 0.00 0.00 0.00 74 1004.1
20260510190504 51 17 1.7 7.8 0.00 0.00 0.00 74 1004.2
20260510190425 51 13 1.7 7.8 0.00 0.00 0.00 74 1004.2
20260510190304 52 12 1.7 7.8 0.00 0.00 0.00 74 1004.3
20260510190225 52 14 1.7 7.8 0.00 0.00 0.00 74 1004.3
20260510190104 52 16 1.7 7.0 0.00 0.00 0.00 74 1004.2
20260510190004 52 11 1.7 7.0 0.00 0.00 0.00 74 1004.0
20260510185904 52 12 1.7 7.0 0.00 0.00 0.00 73 1004.1
20260510185804 52 2 1.7 7.0 0.00 0.00 0.00 73 1004.1
20260510185704 52 360 1.7 7.0 0.00 0.00 0.00 73 1004.1
20260510185604 52 360 1.7 7.0 0.00 0.00 0.00 72 1004.1
20260510185505 52 6 1.7 7.0 0.00 0.00 0.00 72 1004.2
20260510185404 52 9 1.7 6.1 0.00 0.00 0.00 72 1004.3
20260510185325 52 7 1.7 6.1 0.00 0.00 0.00 72 1004.3
20260510185204 52 3 1.7 6.1 0.00 0.00 0.00 72 1004.3
20260510185104 52 6 1.7 5.2 0.00 0.00 0.00 72 1004.3
20260510185025 52 12 1.7 6.1 0.00 0.00 0.00 71 1004.3
20260510184925 52 18 1.7 6.1 0.00 0.00 0.00 71 1004.1
20260510184804 52 20 1.7 6.1 0.00 0.00 0.00 70 1004.2
20260510184704 53 20 1.7 6.1 0.00 0.00 0.00 70 1004.4
20260510184625 53 22 1.7 6.1 0.00 0.00 0.00 70 1004.4
20260510184505 53 25 1.7 6.1 0.00 0.00 0.00 71 1004.3
20260510184425 53 26 1.7 6.1 0.00 0.00 0.00 70 1004.3
20260510184304 53 32 1.7 6.1 0.00 0.00 0.00 71 1004.2
20260510184204 53 30 1.7 6.1 0.00 0.00 0.00 71 1004.3
20260510184104 53 23 1.7 6.1 0.00 0.00 0.00 72 1004.2
20260510184005 52 22 1.7 6.1 0.00 0.00 0.00 71 1004.2
20260510183904 52 19 1.7 6.1 0.00 0.00 0.00 72 1004.3
20260510183804 52 19 1.7 6.1 0.00 0.00 0.00 73 1004.4
20260510183704 52 19 1.7 6.1 0.00 0.00 0.00 73 1004.2
20260510183604 52 25 1.7 7.0 0.00 0.00 0.00 73 1004.2
20260510183504 52 24 1.7 7.0 0.00 0.00 0.00 74 1004.3
20260510183425 52 27 1.7 7.0 0.00 0.00 0.00 74 1004.3
20260510183325 52 23 2.6 7.0 0.00 0.00 0.00 74 1004.5
20260510183204 52 24 2.6 7.0 0.00 0.00 0.00 74 1004.7
20260510183104 52 24 2.6 7.0 0.00 0.00 0.00 73 1004.4
20260510183004 52 21 2.6 7.0 0.00 0.00 0.00 73 1004.2
20260510182904 52 22 2.6 7.0 0.00 0.00 0.00 73 1004.3
20260510182804 52 24 2.6 7.0 0.00 0.00 0.00 73 1004.5
20260510182704 52 25 2.6 7.0 0.00 0.00 0.00 72 1004.2
20260510182604 52 18 2.6 7.0 0.00 0.00 0.00 72 1004.3
20260510182504 52 16 2.6 7.0 0.00 0.00 0.00 71 1004.3
20260510182425 53 11 2.6 6.1 0.00 0.00 0.00 71 1004.3
20260510182306 53 3 2.6 7.0 0.00 0.00 0.00 71 1004.3
20260510182204 53 14 2.6 8.7 0.00 0.00 0.00 70 1004.4
20260510182105 53 11 2.6 8.7 0.00 0.00 0.00 70 1004.5
20260510182004 53 12 3.5 8.7 0.00 0.00 0.00 69 1004.5
20260510181904 54 11 3.5 8.7 0.00 0.00 0.00 68 1004.4
20260510181804 54 9 3.5 8.7 0.00 0.00 0.00 67 1004.4
20260510181704 54 15 3.5 8.7 0.00 0.00 0.00 67 1004.5
20260510181604 54 18 3.5 8.7 0.00 0.00 0.00 67 1004.7
20260510181504 54 18 3.5 8.7 0.00 0.00 0.00 66 1004.4
20260510181404 54 19 3.5 8.7 0.00 0.00 0.00 66 1004.5
20260510181304 54 19 3.5 8.7 0.00 0.00 0.00 65 1004.4
20260510181204 54 16 3.5 8.7 0.00 0.00 0.00 65 1004.5
20260510181104 54 21 2.6 7.8 0.00 0.00 0.00 64 1004.4
20260510181025 54 23 2.6 7.8 0.00 0.00 0.00 64 1004.4
20260510180904 55 22 2.6 7.8 0.00 0.00 0.00 64 1004.4
20260510180804 55 22 2.6 7.0 0.00 0.00 0.00 64 1004.6
20260510180704 55 17 2.6 6.1 0.00 0.00 0.00 64 1004.3
20260510180604 55 18 2.6 6.1 0.00 0.00 0.00 63 1004.4
20260510180504 55 12 1.7 6.1 0.00 0.00 0.00 63 1004.4
20260510180404 55 10 1.7 6.1 0.00 0.00 0.00 63 1004.6
20260510180304 55 16 1.7 6.1 0.00 0.00 0.00 64 1004.4
20260510180204 55 12 1.7 6.1 0.00 0.00 0.00 63 1004.3
20260510180125 55 1 1.7 6.1 0.00 0.00 0.00 63 1004.3
20260510180005 55 347 1.7 6.1 0.00 0.00 0.00 63 1004.5
20260510175904 55 343 1.7 6.1 0.00 0.00 0.00 63 1004.5
20260510175825 55 338 1.7 6.1 0.00 0.00 0.00 63 1004.5
20260510175704 55 331 1.7 6.1 0.00 0.00 0.00 63 1004.4
20260510175604 55 323 1.7 6.1 0.00 0.00 0.00 61 1004.5
20260510175504 55 317 2.6 6.1 0.00 0.00 0.00 62 1004.7
20260510175404 56 313 2.6 6.1 0.00 0.00 0.00 62 1004.7
20260510175306 56 295 2.6 6.1 0.00 0.00 0.00 62 1004.7
20260510175225 56 290 2.6 6.1 0.00 0.00 0.00 62 1004.7
20260510175104 56 289 2.6 7.0 0.00 0.00 0.00 60 1004.7
20260510175004 56 285 2.6 7.0 0.00 0.00 0.00 59 1004.7
20260510174904 56 284 2.6 7.0 0.00 0.00 0.00 58 1004.7
20260510174804 56 281 3.5 7.0 0.00 0.00 0.00 58 1004.6
20260510174704 56 277 3.5 7.0 0.00 0.00 0.00 58 1004.8
20260510174604 56 278 3.5 7.0 0.00 0.00 0.00 58 1004.6
20260510174504 56 287 2.6 7.0 0.00 0.00 0.00 59 1004.7
20260510174425 56 286 3.5 7.0 0.00 0.00 0.00 58 1004.7
20260510174304 56 285 2.6 7.0 0.00 0.00 0.00 59 1004.6
20260510174204 56 288 2.6 7.8 0.00 0.00 0.00 57 1004.7
20260510174104 56 291 2.6 7.8 0.00 0.00 0.00 57 1004.8
20260510174004 56 293 3.5 7.8 0.00 0.00 0.00 57 1004.6
20260510173904 56 287 3.5 9.6 0.00 0.00 0.00 57 1004.8
20260510173825 56 290 3.5 9.6 0.00 0.00 0.00 57 1004.8
20260510173704 56 291 3.5 9.6 0.00 0.00 0.00 56 1004.9
20260510173605 56 289 3.5 9.6 0.00 0.00 0.00 57 1004.7
20260510173525 56 287 3.5 9.6 0.00 0.00 0.00 58 1004.7
20260510173404 56 285 3.5 9.6 0.00 0.00 0.00 59 1004.7
20260510173304 56 285 3.5 9.6 0.00 0.00 0.00 60 1004.6
20260510173204 56 283 3.5 9.6 0.00 0.00 0.00 60 1005.0
20260510173104 56 279 4.3 9.6 0.00 0.00 0.00 60 1004.7
20260510173004 55 275 3.5 9.6 0.00 0.00 0.00 63 1004.8
20260510172904 55 276 3.5 9.6 0.00 0.00 0.00 64 1005.0
20260510172804 55 275 3.5 7.8 0.00 0.00 0.00 63 1004.7
20260510172704 55 273 3.5 7.8 0.00 0.00 0.00 61 1005.0
20260510172625 54 274 3.5 7.0 0.00 0.00 0.00 63 1005.0
20260510172504 54 270 3.5 7.0 0.00 0.00 0.00 68 1005.1
20260510172405 54 268 4.3 7.0 0.00 0.00 0.00 70 1004.9
20260510172306 53 263 4.3 7.0 0.00 0.00 0.00 68 1005.2
20260510172204 53 263 4.3 7.0 0.00 0.00 0.00 74 1005.2
20260510172104 53 262 4.3 7.0 0.00 0.00 0.00 73 1005.0
20260510172005 53 262 4.3 7.0 0.00 0.00 0.00 74 1005.0
20260510171925 53 262 4.3 7.0 0.00 0.00 0.00 73 1005.0
20260510171804 53 256 4.3 7.0 0.00 0.00 0.00 76 1005.1
20260510171704 52 257 4.3 7.0 0.00 0.00 0.00 77 1005.1
20260510171604 52 254 4.3 7.8 0.00 0.00 0.00 76 1004.9
20260510171504 52 256 4.3 7.8 0.00 0.00 0.00 76 1005.0
20260510171404 53 254 4.3 7.8 0.00 0.00 0.00 75 1005.1
20260510171304 53 255 4.3 7.8 0.00 0.00 0.00 76 1005.2
20260510171204 53 254 4.3 7.8 0.00 0.00 0.00 75 1005.2
20260510171104 53 254 4.3 7.8 0.00 0.00 0.00 75 1005.1
20260510171025 53 253 4.3 7.8 0.00 0.00 0.00 74 1005.1
20260510170904 52 255 4.3 7.8 0.00 0.00 0.00 73 1005.1
20260510170804 52 257 4.3 7.8 0.00 0.00 0.00 74 1005.3
20260510170704 52 255 4.3 7.8 0.00 0.00 0.00 74 1005.2
20260510170604 52 257 5.2 7.8 0.00 0.00 0.00 75 1005.4
20260510170504 52 257 4.3 8.7 0.00 0.00 0.00 77 1005.3
20260510170425 52 258 5.2 8.7 0.00 0.00 0.00 75 1005.3
20260510170304 52 260 5.2 8.7 0.00 0.00 0.00 74 1005.0
20260510170204 52 258 5.2 8.7 0.00 0.00 0.00 72 1005.3
20260510170125 52 259 5.2 8.7 0.00 0.00 0.00 72 1005.3
20260510170025 53 260 5.2 8.7 0.00 0.00 0.00 74 1005.2
20260510165904 53 260 5.2 8.7 0.00 0.00 0.00 77 1005.2
20260510165825 53 260 5.2 8.7 0.00 0.00 0.00 76 1005.2
20260510165704 53 258 5.2 8.7 0.00 0.00 0.00 73 1005.5
20260510165604 53 256 5.2 8.7 0.00 0.00 0.00 74 1005.5
20260510165504 52 255 5.2 9.6 0.00 0.00 0.00 75 1005.5
20260510165404 52 253 5.2 11.3 0.00 0.00 0.00 76 1005.4
20260510165306 52 251 6.1 11.3 0.00 0.00 0.00 77 1005.3
20260510165204 52 252 6.1 11.3 0.00 0.00 0.00 77 1005.4
20260510165104 52 250 6.1 11.3 0.00 0.00 0.00 77 1005.5
20260510165005 52 250 6.1 11.3 0.00 0.00 0.00 78 1005.4
20260510164904 52 248 6.1 11.3 0.00 0.00 0.00 76 1005.5
20260510164804 52 246 6.1 11.3 0.00 0.00 0.00 78 1005.5
20260510164704 52 247 6.1 11.3 0.00 0.00 0.00 77 1005.4
20260510164604 51 247 6.1 11.3 0.00 0.00 0.00 78 1005.7
20260510164504 51 248 6.1 11.3 0.00 0.00 0.00 78 1005.5
20260510164404 51 250 6.1 11.3 0.00 0.00 0.00 79 1005.5
20260510164304 51 251 6.1 11.3 0.00 0.00 0.00 79 1005.6
20260510164204 51 253 6.1 11.3 0.00 0.00 0.00 80 1005.6
20260510164125 51 256 6.1 11.3 0.00 0.00 0.00 80 1005.6
20260510164004 51 258 6.1 11.3 0.00 0.00 0.00 80 1005.6
20260510163925 51 257 6.1 11.3 0.00 0.00 0.00 79 1005.6
20260510163804 51 261 6.1 11.3 0.00 0.00 0.00 80 1005.5
20260510163704 51 263 6.1 11.3 0.00 0.00 0.00 79 1005.6
20260510163604 51 264 6.1 11.3 0.00 0.00 0.00 79 1005.6
20260510163504 51 265 6.1 11.3 0.00 0.00 0.00 78 1005.8
20260510163425 51 267 6.1 11.3 0.00 0.00 0.00 79 1005.8
20260510163304 52 270 6.1 11.3 0.00 0.00 0.00 78 1005.8
20260510163204 52 271 6.1 9.6 0.00 0.00 0.00 78 1005.8
20260510163104 51 269 6.1 12.2 0.00 0.00 0.00 78 1005.7
20260510163004 51 269 6.1 12.2 0.00 0.00 0.00 77 1005.7
20260510162904 51 271 6.1 12.2 0.00 0.00 0.00 77 1005.9
20260510162804 51 270 7.0 12.2 0.00 0.00 0.00 76 1005.8
20260510162725 51 270 7.0 12.2 0.00 0.00 0.00 76 1005.8
20260510162604 51 269 7.0 12.2 0.00 0.00 0.00 76 1006.0
20260510162504 51 271 7.0 12.2 0.00 0.00 0.00 76 1005.8
20260510162404 51 268 7.0 12.2 0.00 0.00 0.00 76 1006.1
20260510162306 51 265 7.0 12.2 0.00 0.00 0.00 75 1005.9
20260510162204 51 265 7.0 12.2 0.00 0.00 0.00 76 1005.8
20260510162104 52 263 7.8 12.2 0.00 0.00 0.00 76 1005.8
20260510162004 52 261 7.8 12.2 0.00 0.00 0.00 74 1006.0
20260510161904 52 259 7.8 12.2 0.00 0.00 0.00 74 1005.8
20260510161804 52 260 7.0 12.2 0.00 0.00 0.00 74 1006.0
20260510161704 52 259 7.0 12.2 0.00 0.00 0.00 74 1006.0
20260510161604 52 260 7.0 12.2 0.00 0.00 0.00 73 1006.1
20260510161504 52 258 6.1 12.2 0.00 0.00 0.00 73 1005.9
20260510161404 52 258 6.1 12.2 0.00 0.00 0.00 73 1006.1
20260510161325 52 260 6.1 12.2 0.00 0.00 0.00 72 1006.1
20260510161225 52 262 6.1 12.2 0.00 0.00 0.00 72 1005.9
20260510161104 52 265 6.1 11.3 0.00 0.00 0.00 71 1006.0
20260510161004 52 266 6.1 11.3 0.00 0.00 0.00 69 1006.2
20260510160925 52 267 6.1 9.6 0.00 0.00 0.00 72 1006.2
20260510160825 51 269 6.1 9.6 0.00 0.00 0.00 72 1006.0
20260510160725 51 269 6.1 9.6 0.00 0.00 0.00 72 1006.0
20260510160604 50 268 6.1 9.6 0.00 0.00 0.00 73 1006.2
20260510160504 50 271 6.1 9.6 0.00 0.00 0.00 72 1006.0
20260510160404 50 271 6.1 9.6 0.00 0.00 0.00 71 1006.2
20260510160304 50 268 5.2 9.6 0.00 0.00 0.00 71 1006.2
20260510160204 50 269 5.2 9.6 0.00 0.00 0.00 70 1006.3
20260510160104 51 268 5.2 9.6 0.00 0.00 0.00 71 1006.5
20260510160004 51 270 5.2 9.6 0.00 0.00 0.00 70 1006.2
20260510155904 51 268 5.2 9.6 0.00 0.00 0.00 69 1006.2
20260510155825 51 268 5.2 13.9 0.00 0.00 0.00 68 1006.2
20260510155725 51 263 5.2 13.9 0.00 0.00 0.00 69 1006.3
20260510155604 51 262 6.1 13.9 0.00 0.00 0.00 67 1006.4
20260510155504 51 260 6.1 13.9 0.00 0.00 0.00 71 1006.3
20260510155404 51 260 6.1 13.9 0.00 0.00 0.00 72 1006.5
20260510155306 50 263 6.1 13.9 0.00 0.00 0.00 71 1006.6
20260510155225 50 262 6.1 13.9 0.00 0.00 0.00 70 1006.6
20260510155104 51 263 6.1 13.9 0.00 0.00 0.00 71 1006.7
20260510155004 51 262 6.1 13.9 0.00 0.00 0.00 72 1006.6
20260510154904 51 263 6.1 13.9 0.00 0.00 0.00 72 1006.9
20260510154804 51 264 6.1 13.9 0.00 0.00 0.00 73 1006.6
20260510154704 51 268 6.1 11.3 0.00 0.00 0.00 71 1006.8
20260510154604 51 272 5.2 8.7 0.00 0.00 0.00 73 1006.6
20260510154525 51 274 5.2 8.7 0.00 0.00 0.00 73 1006.6
20260510154404 51 273 6.1 9.6 0.00 0.00 0.00 72 1006.8
20260510154325 51 272 6.1 9.6 0.00 0.00 0.00 72 1006.8
20260510154204 51 274 6.1 9.6 0.00 0.00 0.00 73 1006.9
20260510154104 51 272 6.1 9.6 0.00 0.00 0.00 72 1006.7
20260510154004 51 275 6.1 9.6 0.00 0.00 0.00 70 1006.7
20260510153904 51 277 6.1 9.6 0.00 0.00 0.00 70 1006.8
20260510153804 50 276 6.1 9.6 0.00 0.00 0.00 70 1007.0
20260510153704 50 276 6.1 9.6 0.00 0.00 0.00 72 1006.8
20260510153625 50 276 6.1 9.6 0.00 0.00 0.00 72 1006.8
20260510153504 50 277 6.1 9.6 0.00 0.00 0.00 72 1007.0
20260510153404 50 277 6.1 9.6 0.00 0.00 0.00 72 1006.9
20260510153325 50 277 6.1 12.2 0.00 0.00 0.00 71 1006.9
20260510153204 50 277 6.1 12.2 0.00 0.00 0.00 73 1007.0
20260510153104 50 279 6.1 12.2 0.00 0.00 0.00 72 1007.0
20260510153004 50 276 6.1 12.2 0.00 0.00 0.00 72 1006.7
20260510152904 51 273 6.1 12.2 0.00 0.00 0.00 72 1006.8
20260510152804 51 276 6.1 12.2 0.00 0.00 0.00 71 1006.9
20260510152704 51 275 6.1 12.2 0.00 0.00 0.00 70 1006.8
20260510152604 51 276 6.1 12.2 0.00 0.00 0.00 71 1006.9
20260510152504 51 274 6.1 12.2 0.00 0.00 0.00 72 1007.1
20260510152404 50 275 6.1 12.2 0.00 0.00 0.00 73 1006.9
20260510152307 50 275 6.1 12.2 0.00 0.00 0.00 72 1006.8
20260510152204 50 271 5.2 12.2 0.00 0.00 0.00 72 1006.9
20260510152125 50 271 5.2 12.2 0.00 0.00 0.00 72 1006.9
20260510152004 51 273 5.2 12.2 0.00 0.00 0.00 71 1006.8
20260510151904 51 275 5.2 11.3 0.00 0.00 0.00 71 1006.8
20260510151804 51 275 5.2 11.3 0.00 0.00 0.00 71 1007.1
20260510151704 51 277 5.2 11.3 0.00 0.00 0.00 71 1007.2
20260510151604 51 275 5.2 11.3 0.00 0.00 0.00 70 1007.2
20260510151504 51 275 5.2 11.3 0.00 0.00 0.00 72 1007.1
20260510151404 51 276 5.2 11.3 0.00 0.00 0.00 72 1007.1
20260510151304 51 279 5.2 11.3 0.00 0.00 0.00 71 1007.1
20260510151204 51 282 5.2 11.3 0.00 0.00 0.00 69 1007.2
20260510151104 51 285 5.2 11.3 0.00 0.00 0.00 69 1007.3
20260510151025 51 284 5.2 11.3 0.00 0.00 0.00 70 1007.3
20260510150925 52 284 5.2 11.3 0.00 0.00 0.00 70 1007.3
20260510150804 52 282 5.2 11.3 0.00 0.00 0.00 69 1007.4
20260510150704 52 283 5.2 11.3 0.00 0.00 0.00 71 1007.3
20260510150604 52 286 5.2 11.3 0.00 0.00 0.00 71 1007.2
20260510150504 52 286 5.2 11.3 0.00 0.00 0.00 73 1007.4
20260510150404 52 287 6.1 11.3 0.00 0.00 0.00 72 1007.4
20260510150304 52 287 6.1 11.3 0.00 0.00 0.00 72 1007.4
20260510150204 52 284 5.2 11.3 0.00 0.00 0.00 73 1007.4
20260510150104 52 284 6.1 11.3 0.00 0.00 0.00 72 1007.5
20260510150025 52 283 6.1 11.3 0.00 0.00 0.00 72 1007.5
20260510145925 52 284 5.2 9.6 0.00 0.00 0.00 71 1007.4
20260510145804 52 285 5.2 9.6 0.00 0.00 0.00 67 1007.6
20260510145725 52 285 5.2 9.6 0.00 0.00 0.00 66 1007.6
20260510145605 52 283 5.2 11.3 0.00 0.00 0.00 64 1007.5
20260510145504 52 281 5.2 11.3 0.00 0.00 0.00 65 1007.7
20260510145404 52 283 5.2 11.3 0.00 0.00 0.00 68 1007.6
20260510145306 52 284 5.2 11.3 0.00 0.00 0.00 70 1007.6
20260510145204 52 284 5.2 11.3 0.00 0.00 0.00 69 1007.6
20260510145104 52 284 5.2 11.3 0.00 0.00 0.00 66 1007.7
20260510145004 52 282 6.1 11.3 0.00 0.00 0.00 66 1007.7
20260510144904 52 284 5.2 11.3 0.00 0.00 0.00 65 1007.6
20260510144804 52 284 5.2 11.3 0.00 0.00 0.00 69 1007.7
20260510144704 52 283 5.2 11.3 0.00 0.00 0.00 70 1007.8
20260510144625 52 281 5.2 11.3 0.00 0.00 0.00 71 1007.8
20260510144504 51 280 5.2 11.3 0.00 0.00 0.00 70 1007.8
20260510144404 51 279 5.2 11.3 0.00 0.00 0.00 70 1007.8
20260510144304 51 280 5.2 11.3 0.00 0.00 0.00 68 1007.7
20260510144204 52 283 5.2 11.3 0.00 0.00 0.00 69 1007.7
20260510144104 52 283 5.2 11.3 0.00 0.00 0.00 68 1007.8
20260510144004 52 283 5.2 11.3 0.00 0.00 0.00 66 1007.8
20260510143904 52 284 5.2 11.3 0.00 0.00 0.00 67 1007.9
20260510143804 52 285 5.2 11.3 0.00 0.00 0.00 67 1007.6
20260510143704 52 287 6.1 11.3 0.00 0.00 0.00 67 1007.8
20260510143604 51 289 6.1 11.3 0.00 0.00 0.00 66 1007.9
20260510143504 51 291 6.1 11.3 0.00 0.00 0.00 64 1008.0
20260510143404 52 292 5.2 11.3 0.00 0.00 0.00 63 1007.9
20260510143304 52 291 5.2 11.3 0.00 0.00 0.00 62 1008.0
20260510143204 52 290 5.2 11.3 0.00 0.00 0.00 64 1007.9
20260510143104 52 288 5.2 11.3 0.00 0.00 0.00 65 1008.1
20260510143004 52 288 5.2 11.3 0.00 0.00 0.00 64 1008.0
20260510142904 52 285 5.2 11.3 0.00 0.00 0.00 65 1007.9
20260510142804 52 284 5.2 9.6 0.00 0.00 0.00 63 1007.9
20260510142704 53 280 5.2 9.6 0.00 0.00 0.00 60 1008.2
20260510142604 53 281 5.2 9.6 0.00 0.00 0.00 58 1007.9
20260510142504 53 284 5.2 9.6 0.00 0.00 0.00 59 1008.1
20260510142404 53 284 5.2 9.6 0.00 0.00 0.00 57 1008.3
20260510142306 53 284 5.2 9.6 0.00 0.00 0.00 57 1008.1
20260510142226 53 284 5.2 9.6 0.00 0.00 0.00 56 1008.1
20260510142104 52 286 5.2 9.6 0.00 0.00 0.00 57 1008.1
20260510142004 52 286 5.2 8.7 0.00 0.00 0.00 59 1008.0
20260510141925 52 288 5.2 8.7 0.00 0.00 0.00 58 1008.0
20260510141804 52 290 5.2 8.7 0.00 0.00 0.00 58 1008.2
20260510141704 52 290 5.2 8.7 0.00 0.00 0.00 59 1008.1
20260510141625 52 287 5.2 9.6 0.00 0.00 0.00 57 1008.1
20260510141504 52 287 5.2 9.6 0.00 0.00 0.00 57 1008.0
20260510141404 52 283 5.2 9.6 0.00 0.00 0.00 56 1008.1
20260510141304 52 283 5.2 9.6 0.00 0.00 0.00 56 1008.2
20260510141204 52 284 5.2 9.6 0.00 0.00 0.00 56 1008.2
20260510141104 52 284 5.2 9.6 0.00 0.00 0.00 56 1008.2
20260510141004 52 286 5.2 9.6 0.00 0.00 0.00 56 1008.1
20260510140904 52 285 5.2 9.6 0.00 0.00 0.00 55 1008.0
20260510140804 52 287 5.2 9.6 0.00 0.00 0.00 54 1008.1
20260510140704 52 289 5.2 9.6 0.00 0.00 0.00 54 1008.1
20260510140604 52 290 5.2 9.6 0.00 0.00 0.00 50 1008.1
20260510140525 52 290 5.2 9.6 0.00 0.00 0.00 51 1008.1
20260510140404 52 293 5.2 9.6 0.00 0.00 0.00 54 1008.4
20260510140304 52 296 5.2 9.6 0.00 0.00 0.00 52 1008.1
20260510140204 52 295 5.2 9.6 0.00 0.00 0.00 51 1008.0
20260510140104 52 296 5.2 9.6 0.00 0.00 0.00 50 1008.2
20260510140005 52 296 5.2 9.6 0.00 0.00 0.00 50 1008.1
20260510135904 52 297 5.2 8.7 0.00 0.00 0.00 51 1008.2
20260510135804 52 292 5.2 9.6 0.00 0.00 0.00 53 1008.1
20260510135704 52 290 5.2 9.6 0.00 0.00 0.00 54 1007.9
20260510135604 52 288 5.2 9.6 0.00 0.00 0.00 58 1008.2
20260510135504 52 289 5.2 9.6 0.00 0.00 0.00 55 1008.4
20260510135404 52 289 5.2 9.6 0.00 0.00 0.00 54 1008.4
20260510135306 52 288 5.2 9.6 0.00 0.00 0.00 52 1008.2
20260510135204 52 286 5.2 9.6 0.00 0.00 0.00 49 1008.3
20260510135104 52 284 5.2 9.6 0.00 0.00 0.00 50 1008.4
20260510135004 52 284 5.2 9.6 0.00 0.00 0.00 51 1008.2
20260510134904 52 282 4.3 9.6 0.00 0.00 0.00 51 1008.3
20260510134804 52 284 4.3 9.6 0.00 0.00 0.00 51 1008.3
20260510134704 52 284 4.3 9.6 0.00 0.00 0.00 49 1008.4
20260510134604 53 285 4.3 9.6 0.00 0.00 0.00 50 1008.3
20260510134504 53 285 4.3 9.6 0.00 0.00 0.00 49 1008.2
20260510134404 53 282 4.3 8.7 0.00 0.00 0.00 52 1008.7
20260510134325 53 282 4.3 8.7 0.00 0.00 0.00 50 1008.7
20260510134204 53 280 4.3 8.7 0.00 0.00 0.00 51 1008.3
20260510134104 53 281 4.3 8.7 0.00 0.00 0.00 53 1008.5
20260510134004 52 283 4.3 8.7 0.00 0.00 0.00 53 1008.7
20260510133904 52 283 4.3 8.7 0.00 0.00 0.00 52 1008.7
20260510133804 53 286 4.3 8.7 0.00 0.00 0.00 51 1008.6
20260510133704 53 284 4.3 8.7 0.00 0.00 0.00 52 1008.5
20260510133604 53 284 4.3 8.7 0.00 0.00 0.00 52 1008.4
20260510133504 53 281 4.3 7.8 0.00 0.00 0.00 55 1008.7
20260510133404 53 285 4.3 7.8 0.00 0.00 0.00 52 1008.6
20260510133304 53 285 4.3 7.8 0.00 0.00 0.00 54 1008.5
20260510133204 53 286 4.3 8.7 0.00 0.00 0.00 54 1008.6
20260510133104 52 285 4.3 8.7 0.00 0.00 0.00 53 1008.6
20260510133025 52 285 4.3 8.7 0.00 0.00 0.00 52 1008.6
20260510132904 53 281 4.3 8.7 0.00 0.00 0.00 52 1008.7
20260510132804 53 283 4.3 8.7 0.00 0.00 0.00 53 1008.7
20260510132704 53 283 4.3 8.7 0.00 0.00 0.00 52 1008.6
20260510132604 53 283 4.3 8.7 0.00 0.00 0.00 52 1008.6
20260510132525 53 287 4.3 8.7 0.00 0.00 0.00 54 1008.6
20260510132404 53 285 4.3 8.7 0.00 0.00 0.00 55 1008.8
20260510132306 53 287 3.5 8.7 0.00 0.00 0.00 53 1008.6
20260510132225 53 290 3.5 8.7 0.00 0.00 0.00 55 1008.6
20260510132104 53 297 3.5 8.7 0.00 0.00 0.00 53 1008.7
20260510132004 53 297 3.5 7.8 0.00 0.00 0.00 53 1008.8
20260510131904 53 298 3.5 7.8 0.00 0.00 0.00 52 1008.7
20260510131804 53 297 3.5 7.8 0.00 0.00 0.00 53 1008.5
20260510131704 53 305 3.5 7.8 0.00 0.00 0.00 54 1008.7
20260510131604 53 313 3.5 7.8 0.00 0.00 0.00 52 1008.8
20260510131525 53 310 2.6 7.8 0.00 0.00 0.00 52 1008.8
20260510131404 53 313 2.6 7.8 0.00 0.00 0.00 52 1008.9
20260510131304 53 312 2.6 7.8 0.00 0.00 0.00 52 1008.8
20260510131204 53 299 2.6 7.8 0.00 0.00 0.00 55 1009.0
20260510131104 53 306 2.6 7.8 0.00 0.00 0.00 53 1008.9
20260510131004 54 319 2.6 7.8 0.00 0.00 0.00 51 1008.8
20260510130904 54 330 2.6 7.8 0.00 0.00 0.00 52 1008.9
20260510130804 54 327 2.6 7.8 0.00 0.00 0.00 51 1009.0
20260510130704 54 331 2.6 7.0 0.00 0.00 0.00 53 1008.9
20260510130625 54 339 2.6 7.0 0.00 0.00 0.00 52 1008.9
20260510130504 54 351 2.6 7.0 0.00 0.00 0.00 51 1009.2
20260510130404 54 356 2.6 7.0 0.00 0.00 0.00 52 1008.8
20260510130325 54 355 2.6 7.0 0.00 0.00 0.00 52 1008.8
20260510130204 54 8 1.7 7.0 0.00 0.00 0.00 51 1009.0
20260510130104 54 359 1.7 7.0 0.00 0.00 0.00 52 1009.0
20260510130004 54 354 2.6 7.0 0.00 0.00 0.00 52 1008.8
20260510125925 54 348 1.7 6.1 0.00 0.00 0.00 52 1008.8
20260510125804 53 359 1.7 6.1 0.00 0.00 0.00 53 1009.0
20260510125704 53 346 1.7 6.1 0.00 0.00 0.00 53 1009.1
20260510125604 53 339 1.7 6.1 0.00 0.00 0.00 54 1008.8
20260510125504 53 326 1.7 6.1 0.00 0.00 0.00 54 1008.9
20260510125404 53 317 2.6 6.1 0.00 0.00 0.00 52 1008.9
20260510125306 53 320 2.6 7.0 0.00 0.00 0.00 56 1009.1
20260510125204 54 325 2.6 7.8 0.00 0.00 0.00 53 1008.9
20260510125125 54 333 2.6 7.8 0.00 0.00 0.00 53 1008.9
20260510125025 54 335 2.6 7.8 0.00 0.00 0.00 53 1008.9
20260510124904 53 345 2.6 7.8 0.00 0.00 0.00 54 1009.0
20260510124804 53 346 2.6 7.8 0.00 0.00 0.00 55 1008.9
20260510124704 53 353 2.6 7.8 0.00 0.00 0.00 55 1009.2
20260510124604 53 353 2.6 7.8 0.00 0.00 0.00 54 1009.0
20260510124504 53 5 2.6 7.8 0.00 0.00 0.00 53 1008.9
20260510124404 53 10 2.6 7.8 0.00 0.00 0.00 56 1009.0
20260510124325 53 13 2.6 7.8 0.00 0.00 0.00 55 1009.0
20260510124204 54 11 2.6 7.8 0.00 0.00 0.00 55 1009.2
20260510124104 54 9 2.6 7.8 0.00 0.00 0.00 54 1009.1
20260510124025 54 14 2.6 7.0 0.00 0.00 0.00 57 1009.1
20260510123904 53 14 2.6 7.0 0.00 0.00 0.00 56 1009.3
20260510123825 53 10 1.7 7.0 0.00 0.00 0.00 54 1009.3
20260510123704 53 1 1.7 7.0 0.00 0.00 0.00 53 1009.2
20260510123604 54 7 1.7 7.0 0.00 0.00 0.00 54 1009.1
20260510123504 54 7 1.7 7.0 0.00 0.00 0.00 52 1009.2
20260510123425 54 11 1.7 7.0 0.00 0.00 0.00 51 1009.2
20260510123304 54 12 1.7 5.2 0.00 0.00 0.00 54 1009.3
20260510123204 54 12 1.7 5.2 0.00 0.00 0.00 54 1009.0
20260510123104 54 359 1.7 5.2 0.00 0.00 0.00 53 1009.3
20260510123004 54 357 1.7 5.2 0.00 0.00 0.00 53 1009.2
20260510122904 53 346 1.7 5.2 0.00 0.00 0.00 53 1009.2
20260510122804 53 5 1.7 5.2 0.00 0.00 0.00 52 1009.2
20260510122704 53 23 1.7 5.2 0.00 0.00 0.00 53 1009.3
20260510122604 53 23 0.9 3.5 0.00 0.00 0.00 52 1009.4
20260510122504 53 23 1.7 5.2 0.00 0.00 0.00 51 1009.5
20260510122425 54 32 0.9 5.2 0.00 0.00 0.00 53 1009.5
20260510122306 54 46 1.7 5.2 0.00 0.00 0.00 50 1009.3
20260510122204 54 56 1.7 5.2 0.00 0.00 0.00 53 1009.5
20260510122104 54 63 1.7 5.2 0.00 0.00 0.00 51 1009.5
20260510122004 54 57 1.7 5.2 0.00 0.00 0.00 52 1009.4
20260510121904 54 61 1.7 5.2 0.00 0.00 0.00 53 1009.4
20260510121804 53 62 1.7 5.2 0.00 0.00 0.00 53 1009.4
20260510121704 53 59 1.7 5.2 0.00 0.00 0.00 54 1009.4
20260510121604 53 56 1.7 5.2 0.00 0.00 0.00 55 1009.5
20260510121504 53 50 1.7 5.2 0.00 0.00 0.00 59 1009.4
20260510121425 53 41 1.7 5.2 0.00 0.00 0.00 59 1009.4
20260510121304 53 24 1.7 3.5 0.00 0.00 0.00 55 1009.4
20260510121204 53 6 1.7 3.5 0.00 0.00 0.00 53 1009.6
20260510121104 53 338 1.7 5.2 0.00 0.00 0.00 50 1009.7
20260510121004 53 319 1.7 5.2 0.00 0.00 0.00 54 1009.5
20260510120904 53 304 1.7 5.2 0.00 0.00 0.00 52 1009.6
20260510120804 53 296 1.7 5.2 0.00 0.00 0.00 50 1009.9
20260510120704 53 288 1.7 5.2 0.00 0.00 0.00 53 1009.8
20260510120604 53 288 1.7 5.2 0.00 0.00 0.00 53 1009.8
20260510120504 52 293 1.7 5.2 0.00 0.00 0.00 54 1009.9
20260510120425 52 298 1.7 5.2 0.00 0.00 0.00 54 1009.9
20260510120304 52 293 1.7 5.2 0.00 0.00 0.00 56 1009.7
20260510120204 52 294 1.7 5.2 0.00 0.00 0.00 53 1009.7
20260510120104 52 298 2.6 5.2 0.00 0.00 0.00 52 1009.5
20260510120004 52 298 2.6 5.2 0.00 0.00 0.00 52 1009.9
20260510115904 52 289 1.7 6.1 0.00 0.00 0.00 52 1009.5
20260510115825 53 284 1.7 6.1 0.00 0.00 0.00 52 1009.5
20260510115725 53 280 1.7 6.1 0.00 0.00 0.00 51 1009.6
20260510115604 53 277 1.7 6.1 0.00 0.00 0.00 53 1009.7
20260510115504 53 276 1.7 6.1 0.00 0.00 0.00 54 1009.6
20260510115404 53 273 1.7 6.1 0.00 0.00 0.00 53 1009.7
20260510115306 53 273 2.6 6.1 0.00 0.00 0.00 52 1009.6
20260510115204 53 275 1.7 6.1 0.00 0.00 0.00 56 1009.8
20260510115104 53 281 1.7 6.1 0.00 0.00 0.00 53 1009.9
20260510115004 52 291 1.7 6.1 0.00 0.00 0.00 59 1009.9
20260510114904 52 308 2.6 6.1 0.00 0.00 0.00 57 1010.0
20260510114804 52 322 2.6 6.1 0.00 0.00 0.00 54 1010.0
20260510114704 52 334 1.7 6.1 0.00 0.00 0.00 52 1010.0
20260510114604 52 345 1.7 6.1 0.00 0.00 0.00 52 1010.1
20260510114525 53 356 1.7 6.1 0.00 0.00 0.00 54 1010.1
20260510114404 53 14 1.7 6.1 0.00 0.00 0.00 55 1009.9
20260510114304 52 23 1.7 6.1 0.00 0.00 0.00 54 1009.9
20260510114204 52 25 1.7 6.1 0.00 0.00 0.00 55 1010.1
20260510114104 52 27 1.7 6.1 0.00 0.00 0.00 56 1010.1
20260510114004 52 32 1.7 6.1 0.00 0.00 0.00 54 1009.8
20260510113904 52 38 2.6 6.1 0.00 0.00 0.00 56 1010.0
20260510113804 52 42 2.6 6.1 0.00 0.00 0.00 54 1010.1
20260510113725 52 47 2.6 6.1 0.00 0.00 0.00 53 1010.1
20260510113604 52 58 2.6 6.1 0.00 0.00 0.00 55 1010.2
20260510113504 53 61 2.6 6.1 0.00 0.00 0.00 54 1010.2
20260510113404 53 67 1.7 3.5 0.00 0.00 0.00 57 1009.9
20260510113304 53 67 1.7 3.5 0.00 0.00 0.00 56 1010.1
20260510113204 52 69 1.7 3.5 0.00 0.00 0.00 55 1010.0
20260510113104 52 69 1.7 3.5 0.00 0.00 0.00 59 1010.0
20260510113004 52 63 1.7 3.5 0.00 0.00 0.00 60 1010.0
20260510112904 52 63 1.7 3.5 0.00 0.00 0.00 58 1010.1
20260510112804 53 64 1.7 3.5 0.00 0.00 0.00 56 1010.1
20260510112704 53 65 1.7 5.2 0.00 0.00 0.00 59 1010.1
20260510112604 53 60 1.7 5.2 0.00 0.00 0.00 60 1010.3
20260510112504 53 63 1.7 5.2 0.00 0.00 0.00 58 1010.3
20260510112404 52 66 2.6 5.2 0.00 0.00 0.00 59 1010.3
20260510112306 52 59 2.6 5.2 0.00 0.00 0.00 60 1010.1
20260510112204 52 54 2.6 5.2 0.00 0.00 0.00 58 1010.0
20260510112104 52 54 2.6 5.2 0.00 0.00 0.00 58 1010.3
20260510112004 52 59 2.6 5.2 0.00 0.00 0.00 63 1010.3
20260510111904 52 60 2.6 5.2 0.00 0.00 0.00 59 1010.0
20260510111804 52 58 2.6 5.2 0.00 0.00 0.00 58 1010.2
20260510111725 52 55 2.6 5.2 0.00 0.00 0.00 57 1010.2
20260510111625 52 54 2.6 5.2 0.00 0.00 0.00 61 1010.4
20260510111504 52 51 1.7 5.2 0.00 0.00 0.00 58 1010.2
20260510111404 52 52 1.7 5.2 0.00 0.00 0.00 59 1010.2
20260510111304 52 58 1.7 5.2 0.00 0.00 0.00 58 1010.4
20260510111204 52 62 1.7 5.2 0.00 0.00 0.00 62 1010.5
20260510111104 52 63 1.7 5.2 0.00 0.00 0.00 61 1010.4
20260510111004 52 56 1.7 5.2 0.00 0.00 0.00 55 1010.2
20260510110904 52 47 1.7 5.2 0.00 0.00 0.00 58 1010.2
20260510110825 52 45 1.7 6.1 0.00 0.00 0.00 63 1010.2
20260510110704 52 39 1.7 6.1 0.00 0.00 0.00 56 1010.3
20260510110604 52 33 1.7 6.1 0.00 0.00 0.00 58 1010.3
20260510110504 52 33 1.7 6.1 0.00 0.00 0.00 62 1010.2
20260510110404 52 29 1.7 6.1 0.00 0.00 0.00 58 1010.4
20260510110304 52 26 1.7 6.1 0.00 0.00 0.00 56 1010.3
20260510110204 52 27 1.7 6.1 0.00 0.00 0.00 56 1010.4
20260510110104 52 25 1.7 6.1 0.00 0.00 0.00 52 1010.6
20260510110004 52 23 1.7 6.1 0.00 0.00 0.00 51 1010.5
20260510105904 52 26 1.7 6.1 0.00 0.00 0.00 54 1010.6
20260510105804 52 30 1.7 6.1 0.00 0.00 0.00 52 1010.4
20260510105725 52 33 1.7 6.1 0.00 0.00 0.00 53 1010.4
20260510105604 52 32 1.7 5.2 0.00 0.00 0.00 54 1010.4
20260510105504 52 35 2.6 5.2 0.00 0.00 0.00 56 1010.5
20260510105404 52 37 1.7 5.2 0.00 0.00 0.00 54 1010.6
20260510105306 52 44 2.6 5.2 0.00 0.00 0.00 58 1010.6
20260510105204 52 41 2.6 5.2 0.00 0.00 0.00 58 1010.5
20260510105125 52 42 2.6 5.2 0.00 0.00 0.00 59 1010.5
20260510105004 51 42 2.6 5.2 0.00 0.00 0.00 60 1010.5
20260510104925 51 43 2.6 5.2 0.00 0.00 0.00 62 1010.5
20260510104804 51 39 2.6 5.2 0.00 0.00 0.00 61 1010.6
20260510104704 51 37 2.6 5.2 0.00 0.00 0.00 53 1010.5
20260510104604 51 40 1.7 5.2 0.00 0.00 0.00 62 1010.6
20260510104504 51 38 1.7 5.2 0.00 0.00 0.00 64 1010.7
20260510104404 51 33 1.7 5.2 0.00 0.00 0.00 63 1010.5
20260510104304 51 27 1.7 6.1 0.00 0.00 0.00 62 1010.6
20260510104204 51 22 1.7 7.0 0.00 0.00 0.00 57 1010.7
20260510104104 51 21 1.7 7.0 0.00 0.00 0.00 56 1010.7
20260510104004 51 23 1.7 7.0 0.00 0.00 0.00 59 1010.6
20260510103904 50 23 1.7 7.0 0.00 0.00 0.00 68 1010.8
20260510103804 50 21 1.7 7.0 0.00 0.00 0.00 71 1010.8
20260510103704 50 23 1.7 7.0 0.00 0.00 0.00 71 1010.5
20260510103604 50 23 1.7 7.0 0.00 0.00 0.00 71 1010.5
20260510103504 51 22 1.7 7.0 0.00 0.00 0.00 70 1010.9
20260510103404 51 20 1.7 7.0 0.00 0.00 0.00 70 1010.8
20260510103304 51 18 1.7 7.0 0.00 0.00 0.00 71 1010.6
20260510103204 51 18 1.7 7.0 0.00 0.00 0.00 72 1010.8
20260510103104 52 20 1.7 7.0 0.00 0.00 0.00 70 1010.9
20260510103004 52 23 1.7 5.2 0.00 0.00 0.00 67 1010.8
20260510102904 52 26 1.7 5.2 0.00 0.00 0.00 65 1010.7
20260510102804 51 27 1.7 5.2 0.00 0.00 0.00 66 1010.7
20260510102704 51 25 1.7 5.2 0.00 0.00 0.00 62 1010.8
20260510102604 51 26 1.7 5.2 0.00 0.00 0.00 62 1010.8
20260510102504 51 33 1.7 5.2 0.00 0.00 0.00 59 1010.9
20260510102404 51 39 1.7 5.2 0.00 0.00 0.00 59 1010.8
20260510102306 51 47 1.7 5.2 0.00 0.00 0.00 57 1010.9
20260510102203 51 54 1.7 5.2 0.00 0.00 0.00 61 1010.6
20260510102104 51 55 1.7 5.2 0.00 0.00 0.00 57 1010.7
20260510102004 51 57 1.7 5.2 0.00 0.00 0.00 59 1010.9
20260510101904 51 64 1.7 5.2 0.00 0.00 0.00 63 1010.8
20260510101804 51 74 1.7 5.2 0.00 0.00 0.00 62 1010.7
20260510101725 51 79 1.7 5.2 0.00 0.00 0.00 65 1010.7
20260510101604 51 79 1.7 5.2 0.00 0.00 0.00 64 1011.0
20260510101504 51 76 1.7 5.2 0.00 0.00 0.00 69 1010.8
20260510101404 51 76 1.7 6.1 0.00 0.00 0.00 64 1010.9
20260510101304 51 77 2.6 7.0 0.00 0.00 0.00 68 1010.9
20260510101204 51 76 2.6 7.0 0.00 0.00 0.00 64 1010.9
20260510101104 51 76 2.6 7.0 0.00 0.00 0.00 66 1011.0
20260510101004 50 75 2.6 7.0 0.00 0.00 0.00 64 1010.9
20260510100904 50 69 2.6 7.0 0.00 0.00 0.00 62 1011.0
20260510100804 50 69 2.6 7.0 0.00 0.00 0.00 65 1011.0
20260510100704 50 69 2.6 7.0 0.00 0.00 0.00 63 1010.9
20260510100604 50 75 2.6 7.0 0.00 0.00 0.00 69 1011.1
20260510100504 50 77 2.6 7.0 0.00 0.00 0.00 70 1010.9
20260510100404 50 76 2.6 7.0 0.00 0.00 0.00 66 1010.9
20260510100325 50 77 3.5 7.0 0.00 0.00 0.00 66 1010.9
20260510100225 50 79 2.6 7.0 0.00 0.00 0.00 68 1011.1
20260510100104 50 78 2.6 7.0 0.00 0.00 0.00 68 1011.0
20260510100004 49 79 3.5 7.0 0.00 0.00 0.00 70 1011.0
20260510095925 49 79 3.5 7.0 0.00 0.00 0.00 69 1011.0
20260510095825 49 79 4.3 7.8 0.00 0.00 0.00 68 1010.9
20260510095704 50 78 4.3 7.8 0.00 0.00 0.00 70 1011.0
20260510095604 50 77 4.3 7.8 0.00 0.00 0.00 67 1011.0
20260510095504 49 77 4.3 7.8 0.00 0.00 0.00 71 1010.8
20260510095404 49 78 3.5 7.8 0.00 0.00 0.00 71 1011.0
20260510095305 49 74 3.5 7.8 0.00 0.00 0.00 73 1010.9
20260510095204 49 73 3.5 7.8 0.00 0.00 0.00 69 1011.2
20260510095104 49 68 3.5 7.8 0.00 0.00 0.00 71 1011.1
20260510095004 50 68 3.5 7.8 0.00 0.00 0.00 70 1011.0
20260510094904 50 67 3.5 7.8 0.00 0.00 0.00 71 1011.1
20260510094804 50 69 3.5 7.8 0.00 0.00 0.00 69 1011.2
20260510094704 50 67 3.5 7.0 0.00 0.00 0.00 71 1011.1
20260510094604 50 65 3.5 7.0 0.00 0.00 0.00 71 1011.3
20260510094503 50 61 3.5 7.0 0.00 0.00 0.00 71 1011.2
20260510094404 50 58 2.6 7.0 0.00 0.00 0.00 69 1011.1
20260510094304 49 60 2.6 7.0 0.00 0.00 0.00 70 1011.0
20260510094204 49 56 2.6 7.8 0.00 0.00 0.00 70 1011.2
20260510094103 49 62 2.6 7.8 0.00 0.00 0.00 71 1011.4
20260510094004 50 65 3.5 7.8 0.00 0.00 0.00 69 1011.1
20260510093904 50 63 2.6 7.8 0.00 0.00 0.00 71 1011.3
20260510093804 50 59 2.6 7.8 0.00 0.00 0.00 73 1011.2
20260510093725 50 60 2.6 7.8 0.00 0.00 0.00 74 1011.2
20260510093625 50 58 2.6 7.8 0.00 0.00 0.00 72 1011.2
20260510093504 49 64 3.5 7.8 0.00 0.00 0.00 71 1011.4
20260510093404 49 68 3.5 7.8 0.00 0.00 0.00 72 1011.3
20260510093304 49 67 3.5 7.8 0.00 0.00 0.00 72 1011.6
20260510093204 49 71 3.5 7.8 0.00 0.00 0.00 74 1011.1
20260510093104 49 69 3.5 7.8 0.00 0.00 0.00 71 1011.3
20260510093025 49 66 3.5 7.0 0.00 0.00 0.00 73 1011.3
20260510092925 49 62 3.5 7.0 0.00 0.00 0.00 74 1011.2
20260510092825 49 63 3.5 7.0 0.00 0.00 0.00 73 1011.4
20260510092704 49 62 3.5 7.0 0.00 0.00 0.00 76 1011.4
20260510092604 49 62 2.6 7.0 0.00 0.00 0.00 78 1011.3
20260510092504 49 60 2.6 7.0 0.00 0.00 0.00 75 1011.3
20260510092404 49 56 3.5 7.0 0.00 0.00 0.00 72 1011.2
20260510092306 49 53 2.6 7.0 0.00 0.00 0.00 72 1011.4
20260510092204 49 51 2.6 7.0 0.00 0.00 0.00 75 1011.5
20260510092104 49 48 2.6 7.0 0.00 0.00 0.00 74 1011.5
20260510092004 49 52 2.6 7.0 0.00 0.00 0.00 74 1011.5
20260510091925 49 53 2.6 7.0 0.00 0.00 0.00 72 1011.5
20260510091804 49 51 2.6 7.0 0.00 0.00 0.00 74 1011.6
20260510091704 49 50 2.6 7.0 0.00 0.00 0.00 75 1011.3
20260510091625 49 47 2.6 7.0 0.00 0.00 0.00 75 1011.3
20260510091504 49 37 1.7 6.1 0.00 0.00 0.00 71 1011.5
20260510091404 49 35 1.7 7.0 0.00 0.00 0.00 74 1011.5
20260510091304 49 38 1.7 7.0 0.00 0.00 0.00 75 1011.5
20260510091204 49 36 1.7 7.0 0.00 0.00 0.00 73 1011.5
20260510091104 49 39 2.6 7.0 0.00 0.00 0.00 74 1011.4
20260510091025 49 41 2.6 7.0 0.00 0.00 0.00 73 1011.4
20260510090904 48 44 2.6 7.0 0.00 0.00 0.00 77 1011.3
20260510090804 48 43 2.6 7.0 0.00 0.00 0.00 75 1011.5
20260510090704 48 43 2.6 7.0 0.00 0.00 0.00 73 1011.6
20260510090604 48 44 2.6 7.0 0.00 0.00 0.00 74 1011.5
20260510090504 48 46 2.6 7.0 0.00 0.00 0.00 74 1011.6
20260510090403 48 46 2.6 7.0 0.00 0.00 0.00 77 1011.5
20260510090304 48 42 2.6 7.0 0.00 0.00 0.00 76 1011.5
20260510090204 48 38 2.6 7.0 0.00 0.00 0.00 78 1011.4
20260510090104 48 39 2.6 7.0 0.00 0.00 0.00 78 1011.5
20260510090025 48 40 2.6 7.8 0.00 0.00 0.00 78 1011.5
20260510085904 48 43 2.6 7.8 0.00 0.00 0.00 78 1011.5
20260510085804 48 45 3.5 7.8 0.00 0.00 0.00 77 1011.8
20260510085725 48 46 3.5 7.8 0.00 0.00 0.00 76 1011.8
20260510085604 47 48 2.6 7.8 0.00 0.00 0.00 77 1011.7
20260510085525 47 47 3.5 7.8 0.00 0.00 0.00 78 1011.7
20260510085425 47 48 3.5 7.8 0.00 0.00 0.00 78 1011.6
20260510085325 48 51 3.5 7.8 0.00 0.00 0.00 78 1011.6
20260510085204 48 58 3.5 7.8 0.00 0.00 0.00 79 1011.6
20260510085104 47 59 3.5 7.8 0.00 0.00 0.00 79 1011.6
20260510085025 48 55 3.5 7.8 0.00 0.00 0.00 79 1011.6
20260510084903 48 50 2.6 7.8 0.00 0.00 0.00 79 1011.6
20260510084804 47 52 2.6 8.7 0.00 0.00 0.00 79 1011.6
20260510084725 47 52 2.6 8.7 0.00 0.00 0.00 80 1011.6
20260510084604 48 53 3.5 8.7 0.00 0.00 0.00 79 1011.7
20260510084504 48 54 3.5 8.7 0.00 0.00 0.00 80 1011.5
20260510084424 48 54 3.5 8.7 0.00 0.00 0.00 80 1011.5
20260510084304 47 49 3.5 8.7 0.00 0.00 0.00 79 1011.8
20260510084204 47 45 3.5 8.7 0.00 0.00 0.00 78 1011.7
20260510084104 47 44 2.6 8.7 0.00 0.00 0.00 78 1011.4
20260510084004 47 45 2.6 8.7 0.00 0.00 0.00 79 1011.7
20260510083904 47 43 2.6 8.7 0.00 0.00 0.00 80 1011.4
20260510083804 47 38 2.6 8.7 0.00 0.00 0.00 81 1011.9
20260510083703 47 38 2.6 8.7 0.00 0.00 0.00 81 1011.8
20260510083604 47 42 2.6 6.1 0.00 0.00 0.00 82 1011.7
20260510083503 47 45 2.6 6.1 0.00 0.00 0.00 81 1011.7
20260510083404 47 45 2.6 6.1 0.00 0.00 0.00 81 1011.7
20260510083304 47 48 2.6 6.1 0.00 0.00 0.00 80 1011.6
20260510083203 47 48 2.6 6.1 0.00 0.00 0.00 80 1011.6
20260510083104 47 45 2.6 6.1 0.00 0.00 0.00 80 1011.7
20260510083003 48 40 2.6 6.1 0.00 0.00 0.00 80 1011.7
20260510082904 48 44 2.6 6.1 0.00 0.00 0.00 81 1011.6
20260510082804 48 40 2.6 6.1 0.00 0.00 0.00 82 1011.7
20260510082703 47 35 2.6 6.1 0.00 0.00 0.00 82 1011.6
20260510082604 47 31 2.6 5.2 0.00 0.00 0.00 83 1011.6
20260510082504 47 33 2.6 7.0 0.00 0.00 0.00 82 1011.7
20260510082404 46 40 2.6 7.0 0.00 0.00 0.00 82 1011.6
20260510082306 46 44 2.6 7.0 0.00 0.00 0.00 82 1011.7
20260510082204 46 43 3.5 7.0 0.00 0.00 0.00 82 1011.7
20260510082104 46 48 2.6 7.0 0.00 0.00 0.00 82 1011.8
20260510082003 46 53 2.6 7.0 0.00 0.00 0.00 83 1011.6
20260510081904 47 51 2.6 7.0 0.00 0.00 0.00 82 1011.8
20260510081804 47 53 2.6 7.0 0.00 0.00 0.00 82 1011.7
20260510081704 47 55 2.6 7.0 0.00 0.00 0.00 83 1011.5
20260510081603 47 58 2.6 7.0 0.00 0.00 0.00 83 1012.0
20260510081504 47 58 3.5 7.8 0.00 0.00 0.00 84 1011.6
20260510081425 47 57 3.5 7.8 0.00 0.00 0.00 84 1011.6
20260510081304 47 59 3.5 7.8 0.00 0.00 0.00 85 1011.8
20260510081204 46 62 3.5 7.8 0.00 0.00 0.00 85 1011.7
20260510081104 46 63 3.5 7.8 0.00 0.00 0.00 85 1011.4
20260510081005 46 64 3.5 7.8 0.00 0.00 0.00 85 1011.6
20260510080925 46 65 3.5 7.8 0.00 0.00 0.00 85 1011.6
20260510080804 46 67 3.5 7.8 0.00 0.00 0.00 86 1011.7
20260510080704 46 69 3.5 7.8 0.00 0.00 0.00 85 1011.6
20260510080603 46 68 3.5 7.8 0.00 0.00 0.00 85 1011.7
20260510080504 46 68 3.5 7.8 0.00 0.00 0.00 85 1011.7
20260510080403 46 69 3.5 7.8 0.00 0.00 0.00 85 1011.6
20260510080304 46 69 3.5 7.8 0.00 0.00 0.00 85 1011.7
20260510080203 46 69 3.5 7.8 0.00 0.00 0.00 85 1011.8
20260510080104 46 69 3.5 7.8 0.00 0.00 0.00 85 1011.9
20260510080004 46 68 3.5 7.8 0.00 0.00 0.00 85 1011.7
20260510075904 46 69 3.5 7.8 0.00 0.00 0.00 85 1011.8
20260510075804 46 68 3.5 7.8 0.00 0.00 0.00 86 1011.9
20260510075704 46 69 3.5 7.8 0.00 0.00 0.00 86 1011.8
20260510075604 46 68 3.5 7.8 0.00 0.00 0.00 86 1011.7
20260510075504 46 66 3.5 7.8 0.00 0.00 0.00 87 1011.9
20260510075425 46 65 3.5 7.8 0.00 0.00 0.00 87 1011.9
20260510075306 46 62 3.5 7.8 0.00 0.00 0.00 86 1011.7
20260510075203 46 63 3.5 7.8 0.00 0.00 0.00 87 1011.8
20260510075104 46 63 3.5 7.8 0.00 0.00 0.00 87 1011.7
20260510075004 46 64 3.5 7.8 0.00 0.00 0.00 86 1011.8
20260510074904 46 64 3.5 7.8 0.00 0.00 0.00 86 1011.9
20260510074825 46 66 3.5 7.8 0.00 0.00 0.00 86 1011.9
20260510074704 46 66 3.5 7.8 0.00 0.00 0.00 87 1011.9
20260510074604 46 68 3.5 7.0 0.00 0.00 0.00 87 1011.7
20260510074504 45 70 3.5 7.0 0.00 0.00 0.00 87 1011.7
20260510074425 45 69 3.5 7.0 0.00 0.00 0.00 87 1011.7
20260510074304 45 71 3.5 7.0 0.00 0.00 0.00 88 1012.0
20260510074225 45 73 3.5 7.0 0.00 0.00 0.00 88 1012.0
20260510074104 45 73 3.5 7.0 0.00 0.00 0.00 88 1011.8
20260510074025 45 72 3.5 7.0 0.00 0.00 0.00 88 1011.8
20260510073903 45 73 3.5 7.8 0.00 0.00 0.00 88 1011.7
20260510073825 45 75 3.5 7.8 0.00 0.00 0.00 88 1011.7
20260510073704 45 76 3.5 7.8 0.00 0.00 0.00 88 1011.9
20260510073604 45 77 3.5 7.8 0.00 0.00 0.00 88 1011.9
20260510073504 45 74 3.5 7.8 0.00 0.00 0.00 89 1011.9
20260510073404 44 75 4.3 7.8 0.00 0.00 0.00 89 1012.3
20260510073303 44 75 4.3 7.8 0.00 0.00 0.00 89 1012.1
20260510073204 44 75 4.3 7.8 0.00 0.00 0.00 90 1012.2
20260510073103 44 75 4.3 7.8 0.00 0.00 0.00 89 1011.8
20260510073004 44 74 4.3 7.8 0.00 0.00 0.00 89 1011.9
20260510072924 44 72 4.3 7.8 0.00 0.00 0.00 89 1011.9
20260510072804 44 72 4.3 8.7 0.00 0.00 0.00 90 1012.0
20260510072704 43 72 4.3 8.7 0.00 0.00 0.00 90 1012.2
20260510072604 43 72 4.3 8.7 0.00 0.00 0.00 91 1012.0
20260510072504 43 75 4.3 8.7 0.00 0.00 0.00 91 1011.9
20260510072404 43 76 5.2 8.7 0.00 0.00 0.00 91 1011.9
20260510072305 43 76 5.2 8.7 0.00 0.00 0.00 91 1012.1
20260510072225 43 76 5.2 8.7 0.00 0.00 0.00 91 1012.1
20260510072104 43 76 5.2 8.7 0.00 0.00 0.00 92 1012.2
20260510072003 43 78 5.2 8.7 0.00 0.00 0.00 92 1012.1
20260510071904 43 79 5.2 8.7 0.00 0.00 0.00 92 1011.9
20260510071804 43 79 5.2 8.7 0.00 0.00 0.00 92 1012.1
20260510071704 43 78 5.2 7.8 0.00 0.00 0.00 92 1012.0
20260510071604 42 78 5.2 7.8 0.00 0.00 0.00 92 1012.1
20260510071503 42 78 5.2 8.7 0.00 0.00 0.00 92 1012.1
20260510071404 42 77 5.2 8.7 0.00 0.00 0.00 92 1011.8
20260510071303 42 76 6.1 8.7 0.00 0.00 0.00 92 1011.9
20260510071204 42 76 6.1 8.7 0.00 0.00 0.00 92 1012.1
20260510071104 42 76 6.1 8.7 0.00 0.00 0.00 93 1012.2
20260510071004 42 76 6.1 8.7 0.00 0.00 0.00 93 1011.9
20260510070904 42 77 6.1 8.7 0.00 0.00 0.00 93 1012.0
20260510070824 42 75 6.1 8.7 0.00 0.00 0.00 93 1012.0
20260510070704 41 75 5.2 8.7 0.00 0.00 0.00 93 1011.8
20260510070603 41 74 5.2 8.7 0.00 0.00 0.00 93 1012.0
20260510070504 42 72 5.2 8.7 0.00 0.00 0.00 93 1011.9
20260510070404 42 71 5.2 8.7 0.00 0.00 0.00 93 1011.9
20260510070304 42 71 5.2 8.7 0.00 0.00 0.00 93 1012.0
20260510070204 41 72 4.3 8.7 0.00 0.00 0.00 93 1011.9
20260510070103 41 71 4.3 8.7 0.00 0.00 0.00 93 1012.0
20260510070004 41 70 4.3 7.8 0.00 0.00 0.00 93 1012.2
20260510065904 41 70 4.3 7.0 0.00 0.00 0.00 93 1012.2
20260510065804 41 70 4.3 7.0 0.00 0.00 0.00 93 1012.1
20260510065704 41 70 4.3 6.1 0.00 0.00 0.00 93 1012.1
20260510065604 41 68 3.5 7.0 0.00 0.00 0.00 93 1012.0
20260510065504 41 69 3.5 7.0 0.00 0.00 0.00 93 1012.1
20260510065404 41 68 3.5 7.0 0.00 0.00 0.00 93 1012.1
20260510065306 41 66 3.5 7.0 0.00 0.00 0.00 93 1012.0
20260510065203 41 65 3.5 7.0 0.00 0.00 0.00 93 1012.1
20260510065104 41 64 3.5 7.0 0.00 0.00 0.00 93 1012.1
20260510065004 41 65 3.5 7.0 0.00 0.00 0.00 93 1012.2
20260510064903 41 63 3.5 7.0 0.00 0.00 0.00 93 1012.1
20260510064804 41 65 3.5 7.0 0.00 0.00 0.00 93 1012.2
20260510064725 41 62 3.5 7.0 0.00 0.00 0.00 93 1012.2
20260510064624 41 58 3.5 7.0 0.00 0.00 0.00 93 1012.4
20260510064504 41 61 3.5 7.0 0.00 0.00 0.00 94 1012.1
20260510064404 41 63 3.5 7.0 0.00 0.00 0.00 94 1012.3
20260510064304 41 64 3.5 7.0 0.00 0.00 0.00 94 1012.3
20260510064204 40 63 3.5 7.8 0.00 0.00 0.00 94 1012.1
20260510064104 40 62 3.5 7.8 0.00 0.00 0.00 94 1012.2
20260510064003 40 62 3.5 7.8 0.00 0.00 0.00 94 1012.0
20260510063904 40 62 4.3 7.8 0.00 0.00 0.00 95 1012.2
20260510063804 40 62 4.3 7.8 0.00 0.00 0.00 95 1012.2
20260510063725 40 63 4.3 7.8 0.00 0.00 0.00 95 1012.2
20260510063604 40 68 5.2 7.8 0.00 0.00 0.00 95 1012.2
20260510063503 40 68 4.3 7.8 0.00 0.00 0.00 95 1012.2
20260510063404 40 67 4.3 7.8 0.00 0.00 0.00 96 1012.2
20260510063325 40 67 5.2 7.8 0.00 0.00 0.00 96 1012.2
20260510063204 40 67 5.2 7.8 0.00 0.00 0.00 96 1012.2
20260510063103 39 68 5.2 7.8 0.00 0.00 0.00 96 1012.1
20260510063004 39 69 5.2 7.8 0.00 0.00 0.00 97 1012.2
20260510062903 39 69 4.3 7.8 0.00 0.00 0.00 97 1012.2
20260510062803 39 71 4.3 7.8 0.00 0.00 0.00 97 1012.2
20260510062704 39 70 4.3 7.8 0.00 0.00 0.00 97 1012.1
20260510062603 39 69 3.5 7.0 0.00 0.00 0.00 98 1012.2
20260510062504 39 68 3.5 7.0 0.00 0.00 0.00 98 1012.3
20260510062403 39 69 3.5 7.0 0.00 0.00 0.00 98 1012.1
20260510062306 39 71 3.5 7.0 0.00 0.00 0.00 98 1012.2
20260510062203 39 72 3.5 7.0 0.00 0.00 0.00 99 1012.1
20260510062104 39 72 3.5 7.0 0.00 0.00 0.00 99 1012.1
20260510062025 39 71 3.5 7.0 0.00 0.00 0.00 99 1012.1
20260510061904 39 68 3.5 7.0 0.00 0.00 0.00 99 1012.2
20260510061804 39 67 3.5 7.0 0.00 0.00 0.00 99 1012.4
20260510061703 38 67 3.5 7.0 0.00 0.00 0.00 99 1012.2
20260510061604 38 69 3.5 7.0 0.00 0.00 0.00 99 1012.2
20260510061504 38 70 3.5 7.0 0.00 0.00 0.00 99 1012.5
20260510061425 38 69 3.5 7.0 0.00 0.00 0.00 99 1012.5
20260510061303 39 66 3.5 7.0 0.00 0.00 0.00 99 1012.3
20260510061204 39 65 3.5 7.0 0.00 0.00 0.00 99 1012.3
20260510061103 38 65 3.5 7.0 0.00 0.00 0.00 99 1012.4
20260510061004 38 66 3.5 7.0 0.00 0.00 0.00 99 1012.3
20260510060904 38 67 3.5 7.0 0.00 0.00 0.00 99 1012.3
20260510060824 38 68 3.5 7.0 0.00 0.00 0.00 99 1012.3
20260510060704 39 67 3.5 7.0 0.00 0.00 0.00 99 1012.3
20260510060624 39 67 3.5 6.1 0.00 0.00 0.00 99 1012.3
20260510060504 38 67 3.5 6.1 0.00 0.00 0.00 99 1012.2
20260510060403 38 69 3.5 6.1 0.00 0.00 0.00 99 1012.4
20260510060304 38 72 3.5 6.1 0.00 0.00 0.00 99 1012.5
20260510060204 38 72 3.5 6.1 0.00 0.00 0.00 99 1012.5
20260510060004 38 71 3.5 6.1 0.00 0.00 0.00 99 1012.4
20260510055903 38 74 3.5 5.2 0.00 0.00 0.00 99 1012.4
20260510055804 38 74 3.5 5.2 0.00 0.00 0.00 99 1012.5
20260510055724 38 77 3.5 5.2 0.00 0.00 0.00 99 1012.5
20260510055604 38 77 3.5 5.2 0.00 0.00 0.00 99 1012.5
20260510055504 38 77 3.5 5.2 0.00 0.00 0.00 99 1012.4
20260510055404 38 77 3.5 5.2 0.00 0.00 0.00 99 1012.7
20260510055306 38 77 3.5 5.2 0.00 0.00 0.00 99 1012.5
20260510055203 38 78 2.6 5.2 0.00 0.00 0.00 99 1012.4
20260510055104 37 78 2.6 5.2 0.00 0.00 0.00 99 1012.5
20260510055004 37 79 2.6 5.2 0.00 0.00 0.00 99 1012.3
20260510054903 37 77 2.6 5.2 0.00 0.00 0.00 99 1012.5
20260510054825 37 76 2.6 5.2 0.00 0.00 0.00 99 1012.5
20260510054703 37 77 3.5 5.2 0.00 0.00 0.00 99 1012.4
20260510054604 37 77 3.5 5.2 0.00 0.00 0.00 99 1012.6
20260510054503 37 77 3.5 5.2 0.00 0.00 0.00 99 1012.5
20260510054404 37 77 3.5 5.2 0.00 0.00 0.00 99 1012.5
20260510054325 37 77 3.5 5.2 0.00 0.00 0.00 99 1012.5
20260510054203 36 77 3.5 6.1 0.00 0.00 0.00 99 1012.7
20260510054104 36 78 3.5 6.1 0.00 0.00 0.00 99 1012.7
20260510054003 36 78 3.5 6.1 0.00 0.00 0.00 99 1012.7
20260510053925 36 78 3.5 6.1 0.00 0.00 0.00 99 1012.7
20260510053803 36 78 3.5 6.1 0.00 0.00 0.00 99 1012.5
20260510053704 36 77 3.5 6.1 0.00 0.00 0.00 99 1012.5
20260510053603 36 77 3.5 6.1 0.00 0.00 0.00 99 1012.6
20260510053504 36 77 3.5 6.1 0.00 0.00 0.00 99 1012.6
20260510053403 36 78 3.5 6.1 0.00 0.00 0.00 99 1012.7
20260510053324 36 78 3.5 6.1 0.00 0.00 0.00 99 1012.7
20260510053204 36 77 3.5 6.1 0.00 0.00 0.00 99 1012.6
20260510053104 36 77 3.5 5.2 0.00 0.00 0.00 99 1012.6
20260510053004 36 77 3.5 5.2 0.00 0.00 0.00 99 1012.7
20260510052903 36 78 3.5 5.2 0.00 0.00 0.00 99 1012.6
20260510052825 36 79 3.5 5.2 0.00 0.00 0.00 99 1012.6
20260510052704 36 81 3.5 5.2 0.00 0.00 0.00 99 1012.7
20260510052604 36 83 3.5 5.2 0.00 0.00 0.00 99 1012.7
20260510052525 36 84 3.5 5.2 0.00 0.00 0.00 99 1012.7
20260510052424 36 85 3.5 5.2 0.00 0.00 0.00 99 1012.7
20260510052306 36 87 2.6 5.2 0.00 0.00 0.00 99 1012.8
20260510052224 36 87 2.6 5.2 0.00 0.00 0.00 99 1012.8
20260510052104 36 88 2.6 6.1 0.00 0.00 0.00 99 1012.5
20260510052003 36 88 2.6 6.1 0.00 0.00 0.00 99 1012.5
20260510051903 36 87 2.6 6.1 0.00 0.00 0.00 99 1012.8
20260510051803 36 86 2.6 6.1 0.00 0.00 0.00 99 1012.7
20260510051703 36 85 2.6 6.1 0.00 0.00 0.00 99 1012.7
20260510051604 36 83 2.6 6.1 0.00 0.00 0.00 99 1012.7
20260510051503 36 82 2.6 6.1 0.00 0.00 0.00 99 1012.7
20260510051404 36 79 2.6 6.1 0.00 0.00 0.00 99 1012.6
20260510051303 36 77 2.6 6.1 0.00 0.00 0.00 99 1012.7
20260510051203 36 74 2.6 6.1 0.00 0.00 0.00 99 1012.7
20260510051104 36 72 2.6 6.1 0.00 0.00 0.00 99 1012.6
20260510051003 36 71 2.6 5.2 0.00 0.00 0.00 99 1012.7
20260510050904 36 70 2.6 5.2 0.00 0.00 0.00 99 1012.7
20260510050825 36 70 2.6 5.2 0.00 0.00 0.00 99 1012.7
20260510050703 36 68 2.6 5.2 0.00 0.00 0.00 99 1012.9
20260510050604 36 68 2.6 5.2 0.00 0.00 0.00 99 1012.7
20260510050503 36 67 2.6 5.2 0.00 0.00 0.00 99 1012.7
20260510050404 36 68 2.6 5.2 0.00 0.00 0.00 99 1012.5
20260510050303 36 69 2.6 5.2 0.00 0.00 0.00 99 1012.9
20260510050225 36 70 2.6 5.2 0.00 0.00 0.00 99 1012.9
20260510050124 36 71 2.6 5.2 0.00 0.00 0.00 99 1012.6
20260510050004 36 72 2.6 5.2 0.00 0.00 0.00 99 1012.7
20260510045903 36 72 2.6 5.2 0.00 0.00 0.00 99 1012.6
20260510045804 35 74 2.6 5.2 0.00 0.00 0.00 99 1012.5
20260510045703 35 74 2.6 5.2 0.00 0.00 0.00 99 1012.8
20260510045603 35 75 2.6 5.2 0.00 0.00 0.00 99 1012.7
20260510045504 35 76 1.7 5.2 0.00 0.00 0.00 99 1012.6
20260510045403 35 76 1.7 5.2 0.00 0.00 0.00 99 1012.5
20260510045325 35 76 1.7 5.2 0.00 0.00 0.00 99 1012.5
20260510045204 35 76 1.7 3.5 0.00 0.00 0.00 99 1012.5
20260510045104 35 74 0.9 2.6 0.00 0.00 0.00 99 1012.5
20260510045004 35 74 0.9 2.6 0.00 0.00 0.00 99 1012.6
20260510044903 35 73 0.9 2.6 0.00 0.00 0.00 99 1012.6
20260510044804 35 68 0.9 1.7 0.00 0.00 0.00 99 1012.5
20260510044703 35 68 0.9 1.7 0.00 0.00 0.00 99 1012.6
20260510044604 35 68 0.9 1.7 0.00 0.00 0.00 99 1012.7
20260510044504 35 68 0.9 1.7 0.00 0.00 0.00 99 1012.6
20260510044404 35 68 0.9 1.7 0.00 0.00 0.00 99 1012.5
20260510044304 35 68 0.9 1.7 0.00 0.00 0.00 99 1012.9
20260510044225 35 68 0.9 1.7 0.00 0.00 0.00 99 1012.9
20260510044104 35 68 0.9 1.7 0.00 0.00 0.00 99 1012.9
20260510044003 35 68 0.9 1.7 0.00 0.00 0.00 99 1012.6
20260510043904 35 68 0.9 1.7 0.00 0.00 0.00 99 1012.7
20260510043803 35 68 0.9 1.7 0.00 0.00 0.00 99 1012.8
20260510043704 35 68 0.9 1.7 0.00 0.00 0.00 99 1012.7
20260510043604 34 68 0.9 1.7 0.00 0.00 0.00 99 1012.7
20260510043504 34 68 0.9 1.7 0.00 0.00 0.00 99 1012.7
20260510043425 34 68 0.9 1.7 0.00 0.00 0.00 99 1012.7
20260510043303 34 68 0.9 1.7 0.00 0.00 0.00 99 1012.8
20260510043225 34 68 0.9 1.7 0.00 0.00 0.00 99 1012.8
20260510043103 34 68 0.9 1.7 0.00 0.00 0.00 99 1012.9
20260510043004 34 68 0.9 2.6 0.00 0.00 0.00 99 1012.7
20260510042903 34 68 0.9 2.6 0.00 0.00 0.00 99 1012.7
20260510042804 34 68 0.9 2.6 0.00 0.00 0.00 99 1012.6
20260510042703 34 69 0.9 2.6 0.00 0.00 0.00 99 1012.7
20260510042604 34 71 0.9 2.6 0.00 0.00 0.00 99 1012.8
20260510042503 34 72 0.9 2.6 0.00 0.00 0.00 99 1012.6
20260510042424 34 72 0.9 2.6 0.00 0.00 0.00 99 1012.6
20260510042306 34 72 0.9 2.6 0.00 0.00 0.00 99 1012.7
20260510042203 34 72 0.9 2.6 0.00 0.00 0.00 99 1012.6
20260510042103 34 72 0.9 2.6 0.00 0.00 0.00 99 1012.6
20260510042004 35 72 0.9 2.6 0.00 0.00 0.00 99 1012.7
20260510041904 35 72 0.9 2.6 0.00 0.00 0.00 99 1012.6
20260510041804 35 70 0.9 2.6 0.00 0.00 0.00 99 1012.9
20260510041704 34 63 0.9 2.6 0.00 0.00 0.00 99 1012.7
20260510041625 34 57 0.9 2.6 0.00 0.00 0.00 99 1012.7
20260510041504 34 47 0.9 2.6 0.00 0.00 0.00 99 1012.7
20260510041404 34 42 0.9 2.6 0.00 0.00 0.00 99 1012.9
20260510041303 34 35 0.9 2.6 0.00 0.00 0.00 99 1012.8
20260510041204 34 28 0.9 2.6 0.00 0.00 0.00 99 1012.7
20260510041103 34 25 0.9 2.6 0.00 0.00 0.00 99 1012.7
20260510041004 34 21 0.9 2.6 0.00 0.00 0.00 99 1012.7
20260510040924 34 17 0.9 2.6 0.00 0.00 0.00 99 1012.7
20260510040803 34 10 0.9 2.6 0.00 0.00 0.00 99 1012.5
20260510040704 34 8 0.9 2.6 0.00 0.00 0.00 99 1012.5
20260510040603 34 9 0.9 2.6 0.00 0.00 0.00 99 1012.6
20260510040503 34 10 0.9 2.6 0.00 0.00 0.00 99 1012.8
20260510040424 34 11 0.9 2.6 0.00 0.00 0.00 99 1012.8
20260510040325 34 12 0.9 2.6 0.00 0.00 0.00 99 1012.8
20260510040203 34 18 0.9 2.6 0.00 0.00 0.00 99 1012.8
20260510040104 35 20 0.9 2.6 0.00 0.00 0.00 99 1012.5
20260510040004 35 22 0.9 2.6 0.00 0.00 0.00 99 1012.7
20260510035925 35 25 0.9 2.6 0.00 0.00 0.00 99 1012.7
20260510035803 35 30 0.9 2.6 0.00 0.00 0.00 99 1012.6
20260510035704 35 29 0.9 2.6 0.00 0.00 0.00 99 1012.7
20260510035603 35 30 0.9 2.6 0.00 0.00 0.00 99 1012.8
20260510035503 35 29 0.9 2.6 0.00 0.00 0.00 99 1012.7
20260510035403 35 28 0.9 2.6 0.00 0.00 0.00 99 1012.5
20260510035324 35 29 0.9 2.6 0.00 0.00 0.00 99 1012.5
20260510035204 35 28 0.9 2.6 0.00 0.00 0.00 99 1012.6
20260510035103 35 30 0.9 2.6 0.00 0.00 0.00 99 1012.7
20260510035003 35 32 0.9 2.6 0.00 0.00 0.00 99 1012.5
20260510034924 35 33 0.9 2.6 0.00 0.00 0.00 99 1012.5
20260510034803 35 38 0.9 2.6 0.00 0.00 0.00 99 1012.5
20260510034724 35 43 0.9 1.7 0.00 0.00 0.00 99 1012.5
20260510034603 34 54 0.9 1.7 0.00 0.00 0.00 99 1012.8
20260510034503 34 62 0.9 1.7 0.00 0.00 0.00 99 1012.5
20260510034403 34 68 0.9 1.7 0.00 0.00 0.00 99 1012.6
20260510034303 34 70 0.9 1.7 0.00 0.00 0.00 99 1012.5
20260510034203 33 70 0.9 1.7 0.00 0.00 0.00 99 1012.5
20260510034125 33 67 0.9 1.7 0.00 0.00 0.00 99 1012.5
20260510034003 33 56 0.9 1.7 0.00 0.00 0.00 99 1012.5
20260510033904 33 50 0.9 1.7 0.00 0.00 0.00 99 1012.5
20260510033803 34 48 0.9 1.7 0.00 0.00 0.00 99 1012.5
20260510033704 34 44 0.9 1.7 0.00 0.00 0.00 99 1012.6
20260510033625 34 40 0.9 1.7 0.00 0.00 0.00 99 1012.6
20260510033503 34 34 0.9 1.7 0.00 0.00 0.00 99 1012.6
20260510033403 34 34 0.9 1.7 0.00 0.00 0.00 99 1012.4
20260510033303 34 34 0.9 1.7 0.00 0.00 0.00 99 1012.4
20260510033203 34 35 0.9 1.7 0.00 0.00 0.00 99 1012.5
20260510033103 34 39 0.0 1.7 0.00 0.00 0.00 99 1012.6
20260510033004 34 48 0.0 1.7 0.00 0.00 0.00 99 1012.4
20260510032903 34 55 0.0 0.9 0.00 0.00 0.00 99 1012.6
20260510032804 34 58 0.0 0.9 0.00 0.00 0.00 99 1012.6
20260510032703 34 63 0.0 0.9 0.00 0.00 0.00 99 1012.6
20260510032603 34 69 0.0 0.9 0.00 0.00 0.00 99 1012.6
20260510032504 34 69 0.9 0.9 0.00 0.00 0.00 99 1012.6
20260510032403 34 69 0.9 0.9 0.00 0.00 0.00 99 1012.6
20260510032306 34 70 0.9 1.7 0.00 0.00 0.00 99 1012.5
20260510032204 34 70 0.9 1.7 0.00 0.00 0.00 99 1012.2
20260510032104 34 70 0.9 1.7 0.00 0.00 0.00 99 1012.3
20260510032025 34 70 0.9 1.7 0.00 0.00 0.00 99 1012.3
20260510031925 34 70 0.9 1.7 0.00 0.00 0.00 99 1012.7
20260510031803 35 70 0.9 1.7 0.00 0.00 0.00 99 1012.6
20260510031704 35 70 0.9 1.7 0.00 0.00 0.00 99 1012.3
20260510031603 35 71 0.9 1.7 0.00 0.00 0.00 99 1012.4
20260510031503 35 71 0.9 1.7 0.00 0.00 0.00 99 1012.4
20260510031424 35 71 0.9 1.7 0.00 0.00 0.00 99 1012.4
20260510031303 35 72 0.9 1.7 0.00 0.00 0.00 99 1012.6
20260510031203 35 73 0.9 1.7 0.00 0.00 0.00 99 1012.6
20260510031103 35 74 0.9 1.7 0.00 0.00 0.00 99 1012.7
20260510031004 35 74 0.9 1.7 0.00 0.00 0.00 99 1012.4
20260510030903 35 75 0.9 1.7 0.00 0.00 0.00 99 1012.7
20260510030803 35 75 0.9 1.7 0.00 0.00 0.00 99 1012.5
20260510030703 35 76 0.9 1.7 0.00 0.00 0.00 99 1012.6
20260510030604 35 76 0.9 1.7 0.00 0.00 0.00 99 1012.4
20260510030503 35 77 0.9 1.7 0.00 0.00 0.00 99 1012.6
20260510030404 35 77 0.9 1.7 0.00 0.00 0.00 99 1012.6
20260510030325 35 77 0.9 1.7 0.00 0.00 0.00 99 1012.6
20260510030203 35 77 0.9 1.7 0.00 0.00 0.00 99 1012.6
20260510030103 35 77 0.9 1.7 0.00 0.00 0.00 99 1012.6
20260510030003 35 77 0.0 1.7 0.00 0.00 0.00 99 1012.6
20260510025903 35 77 0.0 1.7 0.00 0.00 0.00 99 1012.5
20260510025803 35 77 0.0 0.9 0.00 0.00 0.00 99 1012.6
20260510025703 35 77 0.0 0.9 0.00 0.00 0.00 99 1012.7
20260510025603 35 77 0.0 0.9 0.00 0.00 0.00 99 1012.4
20260510025503 35 77 0.0 0.9 0.00 0.00 0.00 99 1012.5
20260510025403 35 77 0.0 0.9 0.00 0.00 0.00 99 1012.6
20260510025306 35 0 0.0 0.0 0.00 0.00 0.00 99 1012.5
20260510025203 35 0 0.0 0.0 0.00 0.00 0.00 99 1012.5
20260510025125 35 0 0.0 0.0 0.00 0.00 0.00 99 1012.5
20260510025003 34 0 0.0 0.0 0.00 0.00 0.00 99 1012.7
20260510024904 34 0 0.0 0.0 0.00 0.00 0.00 99 1012.6
20260510024824 35 0 0.0 0.0 0.00 0.00 0.00 99 1012.6
20260510024704 35 77 0.0 0.9 0.00 0.00 0.00 99 1012.5
20260510024603 35 77 0.0 1.7 0.00 0.00 0.00 99 1012.7
20260510024503 35 76 0.0 1.7 0.00 0.00 0.00 99 1012.5
20260510024403 35 76 0.0 1.7 0.00 0.00 0.00 99 1012.5
20260510024303 35 76 0.0 1.7 0.00 0.00 0.00 99 1012.4
20260510024203 35 76 0.0 1.7 0.00 0.00 0.00 99 1012.4
20260510024103 35 76 0.9 1.7 0.00 0.00 0.00 99 1012.5
20260510024003 35 77 0.9 1.7 0.00 0.00 0.00 99 1012.6
20260510023924 35 77 0.9 1.7 0.00 0.00 0.00 99 1012.6
20260510023803 35 79 0.9 1.7 0.00 0.00 0.00 99 1012.6
20260510023703 35 79 0.9 1.7 0.00 0.00 0.00 99 1012.6
20260510023604 35 79 0.9 1.7 0.00 0.00 0.00 99 1012.4
20260510023503 35 78 0.9 1.7 0.00 0.00 0.00 99 1012.4
20260510023403 35 78 0.9 1.7 0.00 0.00 0.00 99 1012.4
20260510023325 35 77 0.9 1.7 0.00 0.00 0.00 99 1012.4
20260510023203 35 77 0.9 1.7 0.00 0.00 0.00 99 1012.5
20260510023103 35 76 0.9 1.7 0.00 0.00 0.00 99 1012.4
20260510023003 35 75 0.9 1.7 0.00 0.00 0.00 99 1012.5
20260510022903 35 74 0.9 1.7 0.00 0.00 0.00 99 1012.4
20260510022803 35 73 0.9 1.7 0.00 0.00 0.00 99 1012.3
20260510022704 35 73 0.9 1.7 0.00 0.00 0.00 99 1012.5
20260510022603 35 74 0.9 1.7 0.00 0.00 0.00 99 1012.6
20260510022504 35 76 0.9 2.6 0.00 0.00 0.00 99 1012.3
20260510022403 35 78 1.7 2.6 0.00 0.00 0.00 99 1012.4
20260510022306 35 80 1.7 2.6 0.00 0.00 0.00 99 1012.5
20260510022204 35 82 1.7 2.6 0.00 0.00 0.00 99 1012.5
20260510022103 35 85 1.7 2.6 0.00 0.00 0.00 99 1012.4
20260510022004 35 87 1.7 2.6 0.00 0.00 0.00 99 1012.6
20260510021903 35 88 1.7 2.6 0.00 0.00 0.00 99 1012.3
20260510021803 35 90 1.7 2.6 0.00 0.00 0.00 99 1012.2
20260510021724 35 92 1.7 2.6 0.00 0.00 0.00 99 1012.2
20260510021603 35 94 1.7 2.6 0.00 0.00 0.00 99 1012.4
20260510021503 35 95 1.7 2.6 0.00 0.00 0.00 99 1012.4
20260510021403 35 96 1.7 3.5 0.00 0.00 0.00 99 1012.4
20260510021304 35 95 1.7 3.5 0.00 0.00 0.00 99 1012.4
20260510021203 35 94 1.7 3.5 0.00 0.00 0.00 99 1012.4
20260510021103 35 93 2.6 3.5 0.00 0.00 0.00 99 1012.4
20260510021024 35 92 2.6 5.2 0.00 0.00 0.00 99 1012.4
20260510020903 35 88 2.6 5.2 0.00 0.00 0.00 99 1012.6
20260510020804 35 85 2.6 5.2 0.00 0.00 0.00 99 1012.5
20260510020703 34 81 2.6 5.2 0.00 0.00 0.00 99 1012.4
20260510020603 34 78 2.6 5.2 0.00 0.00 0.00 99 1012.6
20260510020503 35 77 2.6 5.2 0.00 0.00 0.00 99 1012.5
20260510020403 35 76 2.6 5.2 0.00 0.00 0.00 99 1012.6
20260510020303 35 74 2.6 5.2 0.00 0.00 0.00 99 1012.5
20260510020203 35 73 2.6 5.2 0.00 0.00 0.00 99 1012.5
20260510020103 35 72 2.6 5.2 0.00 0.00 0.00 99 1012.2
20260510020025 35 72 2.6 5.2 0.00 0.00 0.00 99 1012.2
20260510015924 35 76 2.6 6.1 0.00 0.00 0.00 99 1012.5
20260510015825 35 78 2.6 6.1 0.00 0.00 0.00 99 1012.4
20260510015724 35 80 3.5 6.1 0.00 0.00 0.00 99 1012.3
20260510015603 35 82 3.5 6.1 0.00 0.00 0.00 99 1012.2
20260510015504 35 84 3.5 6.1 0.00 0.00 0.00 99 1012.4
20260510015403 35 86 3.5 6.1 0.00 0.00 0.00 99 1012.4
20260510015306 35 88 3.5 6.1 0.00 0.00 0.00 99 1012.6
20260510015203 35 88 3.5 6.1 0.00 0.00 0.00 99 1012.4
20260510015103 35 89 3.5 6.1 0.00 0.00 0.00 99 1012.3
20260510015003 35 89 3.5 6.1 0.00 0.00 0.00 99 1012.2
20260510014903 35 88 3.5 6.1 0.00 0.00 0.00 99 1012.4
20260510014803 35 87 3.5 5.2 0.00 0.00 0.00 99 1012.4
20260510014703 35 87 3.5 5.2 0.00 0.00 0.00 99 1012.4
20260510014604 35 87 3.5 5.2 0.00 0.00 0.00 99 1012.5
20260510014503 35 86 3.5 5.2 0.00 0.00 0.00 99 1012.2
20260510014403 35 85 3.5 5.2 0.00 0.00 0.00 99 1012.4
20260510014303 35 84 3.5 5.2 0.00 0.00 0.00 99 1012.4
20260510014203 35 83 3.5 5.2 0.00 0.00 0.00 99 1012.2
20260510014103 35 82 3.5 5.2 0.00 0.00 0.00 99 1012.3
20260510014003 35 81 3.5 5.2 0.00 0.00 0.00 99 1012.5
20260510013903 35 81 2.6 5.2 0.00 0.00 0.00 99 1012.4
20260510013803 35 80 2.6 5.2 0.00 0.00 0.00 99 1012.3
20260510013703 35 79 2.6 5.2 0.00 0.00 0.00 99 1012.3
20260510013603 35 78 2.6 5.2 0.00 0.00 0.00 99 1012.4
20260510013524 35 78 2.6 5.2 0.00 0.00 0.00 99 1012.4
20260510013403 35 77 2.6 5.2 0.00 0.00 0.00 99 1012.5
20260510013303 35 76 2.6 5.2 0.00 0.00 0.00 99 1012.5
20260510013203 35 77 2.6 6.1 0.00 0.00 0.00 99 1012.4
20260510013103 35 75 3.5 6.1 0.00 0.00 0.00 99 1012.5
20260510013003 35 76 3.5 6.1 0.00 0.00 0.00 99 1012.6
20260510012903 36 76 3.5 6.1 0.00 0.00 0.00 99 1012.6
20260510012803 36 74 3.5 6.1 0.00 0.00 0.00 99 1012.4
20260510012703 36 73 3.5 6.1 0.00 0.00 0.00 99 1012.6
20260510012624 36 73 3.5 6.1 0.00 0.00 0.00 99 1012.6
20260510012504 36 72 3.5 6.1 0.00 0.00 0.00 99 1012.6
20260510012403 36 73 3.5 6.1 0.00 0.00 0.00 99 1012.7
20260510012306 36 72 3.5 6.1 0.00 0.00 0.00 99 1012.5
20260510012203 36 72 3.5 6.1 0.00 0.00 0.00 99 1012.5
20260510012104 36 71 3.5 7.0 0.00 0.00 0.00 99 1012.7
20260510012003 36 70 3.5 7.0 0.00 0.00 0.00 99 1012.4
20260510011903 36 70 3.5 7.0 0.00 0.00 0.00 99 1012.6
20260510011803 36 70 3.5 7.0 0.00 0.00 0.00 99 1012.3
20260510011703 36 69 3.5 7.0 0.00 0.00 0.00 99 1012.3
20260510011603 37 70 3.5 7.0 0.00 0.00 0.00 99 1012.6
20260510011503 37 69 2.6 7.0 0.00 0.00 0.00 99 1012.4
20260510011403 37 67 3.5 7.0 0.00 0.00 0.00 99 1012.5
20260510011303 37 67 3.5 7.0 0.00 0.00 0.00 99 1012.4
20260510011224 37 67 3.5 7.0 0.00 0.00 0.00 99 1012.4
20260510011125 37 67 3.5 7.0 0.00 0.00 0.00 99 1012.3
20260510011003 37 67 3.5 7.0 0.00 0.00 0.00 99 1012.6
20260510010903 37 66 2.6 7.0 0.00 0.00 0.00 99 1012.7
20260510010803 37 65 2.6 7.0 0.00 0.00 0.00 99 1012.5
20260510010703 37 64 2.6 7.0 0.00 0.00 0.00 99 1012.5
20260510010603 37 60 2.6 7.0 0.00 0.00 0.00 99 1012.4
20260510010503 37 59 2.6 7.0 0.00 0.00 0.00 99 1012.5
20260510010403 37 57 2.6 7.0 0.00 0.00 0.00 99 1012.6
20260510010303 37 53 1.7 5.2 0.00 0.00 0.00 99 1012.5
20260510010224 37 52 1.7 5.2 0.00 0.00 0.00 99 1012.5
20260510010103 37 47 1.7 3.5 0.00 0.00 0.00 99 1012.4
20260510010004 37 49 1.7 6.1 0.00 0.00 0.00 99 1012.6
20260510005903 37 50 1.7 6.1 0.00 0.00 0.00 99 1012.7
20260510005803 37 51 2.6 6.1 0.00 0.00 0.00 99 1012.4
20260510005703 37 51 2.6 6.1 0.00 0.00 0.00 99 1012.7
20260510005604 37 55 2.6 6.1 0.00 0.00 0.00 99 1012.6
20260510005503 37 57 2.6 6.1 0.00 0.00 0.00 99 1012.7
20260510005403 37 59 2.6 6.1 0.00 0.00 0.00 99 1012.5
20260510005306 37 61 3.5 7.0 0.00 0.00 0.00 99 1012.6
20260510005203 37 63 3.5 7.0 0.00 0.00 0.00 99 1012.5
20260510005103 37 65 3.5 7.0 0.00 0.00 0.00 99 1012.7
20260510005003 37 67 3.5 7.0 0.00 0.00 0.00 99 1012.6
20260510004903 37 69 4.3 7.0 0.00 0.00 0.00 99 1012.7
20260510004824 37 71 4.3 7.0 0.00 0.00 0.00 99 1012.7
20260510004704 37 72 4.3 7.0 0.00 0.00 0.00 99 1012.6
20260510004603 37 73 4.3 7.0 0.00 0.00 0.00 99 1012.7
20260510004524 37 74 4.3 7.0 0.00 0.00 0.00 99 1012.7
20260510004403 37 75 4.3 7.0 0.00 0.00 0.00 99 1012.8
20260510004303 37 75 4.3 7.0 0.00 0.00 0.00 99 1012.8
20260510004203 37 74 4.3 7.0 0.00 0.00 0.00 99 1012.6
20260510004103 37 76 4.3 7.0 0.00 0.00 0.00 99 1012.5
20260510004003 37 75 4.3 7.0 0.00 0.00 0.00 99 1012.6
20260510003903 37 74 4.3 7.0 0.00 0.00 0.00 99 1012.7
20260510003803 37 74 4.3 7.0 0.00 0.00 0.00 99 1012.5
20260510003703 37 75 4.3 7.0 0.00 0.00 0.00 99 1012.7
20260510003603 37 74 4.3 7.0 0.00 0.00 0.00 98 1012.7
20260510003524 37 74 4.3 7.0 0.00 0.00 0.00 98 1012.7
20260510003403 37 74 4.3 7.8 0.00 0.00 0.00 98 1012.7
20260510003304 37 74 4.3 7.8 0.00 0.00 0.00 98 1012.7
20260510003203 37 74 4.3 7.8 0.00 0.00 0.00 98 1012.7
20260510003103 37 72 4.3 7.8 0.00 0.00 0.00 98 1012.6
20260510003004 37 73 4.3 7.8 0.00 0.00 0.00 98 1012.8
20260510002924 37 72 4.3 7.8 0.00 0.00 0.00 98 1012.8
20260510002824 37 71 4.3 7.8 0.00 0.00 0.00 98 1012.9
20260510002703 37 69 4.3 7.8 0.00 0.00 0.00 98 1012.8
20260510002604 38 69 4.3 7.8 0.00 0.00 0.00 98 1012.7
20260510002524 38 67 4.3 7.8 0.00 0.00 0.00 98 1012.7
20260510002404 38 66 4.3 7.8 0.00 0.00 0.00 98 1012.8
20260510002306 38 61 3.5 7.8 0.00 0.00 0.00 98 1012.6
20260510002203 38 58 3.5 7.8 0.00 0.00 0.00 98 1012.9
20260510002103 38 57 3.5 7.0 0.00 0.00 0.00 98 1012.9
20260510002003 38 55 3.5 7.0 0.00 0.00 0.00 98 1012.9
20260510001903 38 56 3.5 7.0 0.00 0.00 0.00 98 1012.6
20260510001803 38 56 3.5 7.0 0.00 0.00 0.00 98 1012.8
20260510001703 38 57 3.5 7.0 0.00 0.00 0.00 98 1012.8
20260510001603 38 56 3.5 7.0 0.00 0.00 0.00 98 1012.9
20260510001503 38 57 3.5 7.0 0.00 0.00 0.00 98 1012.7
20260510001403 38 57 3.5 7.0 0.00 0.00 0.00 98 1012.6
20260510001303 38 59 3.5 7.0 0.00 0.00 0.00 98 1012.9
20260510001203 38 61 3.5 7.0 0.00 0.00 0.00 98 1012.8
20260510001103 38 61 3.5 7.0 0.00 0.00 0.00 98 1012.9
20260510001003 38 59 3.5 7.0 0.00 0.00 0.00 98 1012.8
20260510000903 38 57 2.6 7.0 0.00 0.00 0.00 98 1012.8
20260510000803 38 56 2.6 6.1 0.00 0.00 0.00 98 1012.7
20260510000704 38 59 2.6 6.1 0.00 0.00 0.00 98 1012.8
20260510000603 38 59 2.6 6.1 0.00 0.00 0.00 98 1012.9
20260510000504 38 59 2.6 6.1 0.00 0.00 0.00 98 1012.9
20260510000404 38 59 2.6 6.1 0.00 0.00 0.00 98 1012.8
20260510000326 38 61 2.6 6.1 0.00 0.00 0.00 98 1012.8
20260510000204 38 62 2.6 6.1 0.00 0.00 0.00 98 1012.9
20260510000103 38 64 2.6 6.1 0.00 0.00 0.00 98 1013.0
20260510000004 38 70 2.6 6.1 0.00 0.00 0.00 98 1013.1
20260509235903 38 69 2.6 6.1 0.00 0.00 0.00 98 1012.9
20260509235824 38 70 2.6 6.1 0.00 0.00 0.00 98 1012.9
20260509235703 38 71 3.5 6.1 0.00 0.00 0.00 98 1012.9
20260509235603 38 69 3.5 6.1 0.00 0.00 0.00 98 1012.9
20260509235503 38 68 3.5 6.1 0.00 0.00 0.00 98 1012.9
20260509235403 38 68 3.5 6.1 0.00 0.00 0.00 98 1012.8
20260509235306 38 67 3.5 6.1 0.00 0.00 0.00 98 1012.8
20260509235203 38 67 3.5 7.0 0.00 0.00 0.00 98 1012.9
20260509235103 38 66 3.5 7.0 0.00 0.00 0.00 98 1012.8
20260509235003 38 65 3.5 7.0 0.00 0.00 0.00 98 1012.8
20260509234903 38 65 3.5 7.0 0.00 0.00 0.00 98 1013.0
20260509234803 38 65 3.5 7.8 0.00 0.00 0.00 98 1013.0
20260509234703 38 63 3.5 7.8 0.00 0.00 0.00 98 1013.0
20260509234603 38 63 4.3 7.8 0.00 0.00 0.00 98 1012.7
20260509234503 38 63 4.3 7.8 0.00 0.00 0.00 98 1012.8
20260509234403 38 62 4.3 7.8 0.00 0.00 0.00 98 1012.8
20260509234303 38 62 4.3 7.8 0.00 0.00 0.00 98 1012.7
20260509234203 38 60 4.3 7.8 0.00 0.00 0.00 98 1012.5
20260509234103 38 61 4.3 7.8 0.00 0.00 0.00 98 1012.7
20260509234003 38 60 3.5 7.8 0.00 0.00 0.00 98 1012.8
20260509233903 38 60 3.5 7.8 0.00 0.00 0.00 98 1012.8
20260509233804 38 58 3.5 7.8 0.00 0.00 0.00 98 1012.8
20260509233703 38 58 3.5 7.8 0.00 0.00 0.00 98 1012.8
20260509233603 38 57 3.5 7.8 0.00 0.00 0.00 98 1012.6
20260509233503 38 54 3.5 7.8 0.00 0.00 0.00 98 1012.8
20260509233403 38 54 4.3 7.8 0.00 0.00 0.00 98 1012.6
20260509233303 38 55 4.3 7.8 0.00 0.00 0.00 98 1012.6
20260509233203 38 57 4.3 9.6 0.00 0.00 0.00 98 1012.7
20260509233103 38 57 5.2 9.6 0.00 0.00 0.00 98 1012.9
20260509233003 38 57 5.2 9.6 0.00 0.00 0.00 98 1012.8
20260509232903 38 57 5.2 9.6 0.00 0.00 0.00 98 1012.8
20260509232803 38 59 5.2 9.6 0.00 0.00 0.00 98 1012.7
20260509232703 38 61 5.2 9.6 0.00 0.00 0.00 98 1012.8
20260509232603 38 64 5.2 9.6 0.00 0.00 0.00 98 1012.8
20260509232503 38 67 5.2 9.6 0.00 0.00 0.00 98 1012.7
20260509232403 38 69 5.2 9.6 0.00 0.00 0.00 98 1012.7
20260509232306 38 70 5.2 9.6 0.00 0.00 0.00 98 1012.8
20260509232203 38 71 5.2 9.6 0.00 0.00 0.00 98 1012.7
20260509232103 38 73 5.2 8.7 0.00 0.00 0.00 98 1012.6
20260509232003 38 75 5.2 7.8 0.00 0.00 0.00 98 1012.8
20260509231924 37 76 5.2 7.8 0.00 0.00 0.00 98 1012.8
20260509231803 37 77 5.2 7.8 0.00 0.00 0.00 97 1012.8
20260509231703 37 76 5.2 7.8 0.00 0.00 0.00 97 1012.8
20260509231603 37 77 5.2 7.8 0.00 0.00 0.00 97 1012.8
20260509231503 38 78 5.2 7.8 0.00 0.00 0.00 97 1012.7
20260509231403 38 78 5.2 7.8 0.00 0.00 0.00 97 1012.8
20260509231303 38 76 5.2 9.6 0.00 0.00 0.00 97 1012.8
20260509231203 38 75 5.2 9.6 0.00 0.00 0.00 97 1012.6
20260509231103 38 73 5.2 9.6 0.00 0.00 0.00 97 1012.8
20260509231003 38 73 5.2 9.6 0.00 0.00 0.00 97 1012.7
20260509230903 38 72 5.2 9.6 0.00 0.00 0.00 97 1012.7
20260509230803 38 70 5.2 9.6 0.00 0.00 0.00 97 1012.8
20260509230704 38 69 4.3 9.6 0.00 0.00 0.00 97 1012.7
20260509230603 38 67 4.3 9.6 0.00 0.00 0.00 97 1012.7
20260509230503 38 65 4.3 9.6 0.00 0.00 0.00 96 1012.5
20260509230424 38 64 4.3 9.6 0.00 0.00 0.00 96 1012.5
20260509230324 38 61 4.3 9.6 0.00 0.00 0.00 96 1012.8
20260509230203 38 62 3.5 9.6 0.00 0.00 0.00 96 1012.7
20260509230124 38 65 3.5 7.0 0.00 0.00 0.00 96 1012.7
20260509230004 38 62 3.5 7.0 0.00 0.00 0.00 96 1012.8
20260509225903 39 62 3.5 6.1 0.00 0.00 0.00 96 1012.8
20260509225803 39 64 3.5 6.1 0.00 0.00 0.00 96 1012.8
20260509225703 39 66 3.5 6.1 0.00 0.00 0.00 96 1012.9
20260509225603 39 64 3.5 7.0 0.00 0.00 0.00 96 1012.9
20260509225503 39 64 3.5 7.0 0.00 0.00 0.00 96 1012.8
20260509225403 39 63 3.5 7.0 0.00 0.00 0.00 95 1012.8
20260509225305 39 65 3.5 7.0 0.00 0.00 0.00 95 1012.7
20260509225203 39 65 3.5 7.0 0.00 0.00 0.00 95 1013.0
20260509225103 39 65 3.5 7.0 0.00 0.00 0.00 95 1013.0
20260509225024 39 64 3.5 7.0 0.00 0.00 0.00 95 1013.0
20260509224924 39 63 3.5 7.0 0.00 0.00 0.00 95 1012.9
20260509224803 39 63 3.5 7.0 0.00 0.00 0.00 95 1012.8
20260509224703 39 63 3.5 7.0 0.00 0.00 0.00 95 1012.8
20260509224603 39 65 3.5 7.0 0.00 0.00 0.00 95 1012.7
20260509224503 39 67 3.5 7.0 0.00 0.00 0.00 95 1012.9
20260509224403 39 68 3.5 6.1 0.00 0.00 0.00 95 1012.6
20260509224303 39 65 3.5 7.8 0.00 0.00 0.00 95 1012.8
20260509224203 39 66 3.5 7.8 0.00 0.00 0.00 95 1012.7
20260509224103 39 66 3.5 7.8 0.00 0.00 0.00 94 1012.8
20260509224003 39 68 3.5 7.8 0.00 0.00 0.00 94 1012.9
20260509223903 39 67 3.5 7.8 0.00 0.00 0.00 94 1012.8
20260509223803 39 67 3.5 7.8 0.00 0.00 0.00 94 1012.7
20260509223703 39 65 3.5 7.8 0.00 0.00 0.00 94 1013.0
20260509223603 39 64 3.5 7.8 0.00 0.00 0.00 94 1012.8
20260509223524 39 64 3.5 7.8 0.00 0.00 0.00 94 1012.8
20260509223424 39 64 3.5 7.8 0.00 0.00 0.00 94 1012.6
20260509223303 39 65 3.5 7.8 0.00 0.00 0.00 94 1012.7
20260509223203 39 64 3.5 7.8 0.00 0.00 0.00 94 1012.7
20260509223103 39 64 3.5 7.0 0.00 0.00 0.00 94 1012.7
20260509223003 39 59 3.5 7.0 0.00 0.00 0.00 93 1012.7
20260509222924 39 59 3.5 7.0 0.00 0.00 0.00 93 1012.7
20260509222803 39 61 3.5 7.0 0.00 0.00 0.00 93 1012.5
20260509222703 39 60 3.5 7.0 0.00 0.00 0.00 93 1012.8
20260509222603 40 61 3.5 7.0 0.00 0.00 0.00 93 1012.6
20260509222503 40 62 3.5 7.0 0.00 0.00 0.00 93 1012.6
20260509222403 40 62 3.5 7.0 0.00 0.00 0.00 93 1012.8
20260509222306 40 61 3.5 7.0 0.00 0.00 0.00 93 1012.6
20260509222224 40 60 3.5 7.0 0.00 0.00 0.00 92 1012.6
20260509222124 40 64 3.5 7.0 0.00 0.00 0.00 92 1012.7
20260509222004 40 68 3.5 7.0 0.00 0.00 0.00 92 1012.6
20260509221903 40 67 3.5 7.0 0.00 0.00 0.00 92 1012.6
20260509221803 40 64 3.5 7.0 0.00 0.00 0.00 92 1012.8
20260509221703 40 67 3.5 7.0 0.00 0.00 0.00 92 1012.8
20260509221603 40 68 3.5 7.0 0.00 0.00 0.00 92 1012.6
20260509221503 40 68 3.5 7.8 0.00 0.00 0.00 92 1012.6
20260509221403 40 69 3.5 9.6 0.00 0.00 0.00 92 1012.6
20260509221303 40 72 3.5 9.6 0.00 0.00 0.00 92 1012.7
20260509221203 40 71 3.5 9.6 0.00 0.00 0.00 92 1012.6
20260509221124 40 71 3.5 9.6 0.00 0.00 0.00 92 1012.6
20260509221003 40 69 2.6 9.6 0.00 0.00 0.00 92 1012.7
20260509220903 40 68 3.5 9.6 0.00 0.00 0.00 91 1012.6
20260509220803 40 72 3.5 9.6 0.00 0.00 0.00 91 1012.6
20260509220703 40 72 3.5 9.6 0.00 0.00 0.00 91 1012.7
20260509220624 40 71 3.5 9.6 0.00 0.00 0.00 91 1012.7
20260509220524 40 70 3.5 9.6 0.00 0.00 0.00 91 1012.7
20260509220403 40 70 3.5 9.6 0.00 0.00 0.00 91 1012.7
20260509220303 40 68 3.5 8.7 0.00 0.00 0.00 91 1012.6
20260509220203 40 70 3.5 8.7 0.00 0.00 0.00 91 1012.5
20260509220103 40 69 3.5 8.7 0.00 0.00 0.00 91 1012.7
20260509220004 40 70 3.5 8.7 0.00 0.00 0.00 91 1012.8
20260509215903 40 70 3.5 8.7 0.00 0.00 0.00 91 1012.5
20260509215803 40 70 3.5 8.7 0.00 0.00 0.00 90 1012.8
20260509215703 40 67 3.5 8.7 0.00 0.00 0.00 90 1012.8
20260509215624 40 67 3.5 7.0 0.00 0.00 0.00 90 1012.8
20260509215503 40 66 3.5 7.0 0.00 0.00 0.00 90 1012.7
20260509215403 40 64 3.5 7.0 0.00 0.00 0.00 90 1012.8
20260509215324 40 64 3.5 7.0 0.00 0.00 0.00 90 1012.8
20260509215203 40 65 3.5 7.0 0.00 0.00 0.00 90 1012.6
20260509215103 40 65 4.3 7.0 0.00 0.00 0.00 90 1012.8
20260509215003 40 64 4.3 7.8 0.00 0.00 0.00 90 1012.7
20260509214903 40 65 4.3 7.8 0.00 0.00 0.00 89 1012.7
20260509214803 40 66 4.3 7.8 0.00 0.00 0.00 89 1012.7
20260509214724 40 68 4.3 7.8 0.00 0.00 0.00 89 1012.7
20260509214603 40 69 4.3 7.8 0.00 0.00 0.00 89 1012.7
20260509214504 41 71 4.3 7.8 0.00 0.00 0.00 89 1012.7
20260509214424 41 70 4.3 7.8 0.00 0.00 0.00 89 1012.7